| time (UTC) | temp C | wind direction | speed KPH | gust KPH | rain 1hr cm | rain 24hr cm | rain mn cm | humidity % | barometer mb |
| 20260509125140 | 10 | 173 | 9.7 | 17.7 | 0.00 | 0.00 | 0.00 | 49 | 1012.2 |
| 20260509124927 | 10 | 114 | 6.4 | 14.5 | 0.00 | 0.00 | 0.00 | 49 | 1012.2 |
| 20260509124829 | 10 | 133 | 9.7 | 14.5 | 0.00 | 0.00 | 0.00 | 49 | 1012.2 |
| 20260509124734 | 10 | 122 | 9.7 | 14.5 | 0.00 | 0.00 | 0.00 | 49 | 1012.2 |
| 20260509124655 | 10 | 148 | 8.0 | 16.1 | 0.00 | 0.00 | 0.00 | 49 | 1012.2 |
| 20260509124527 | 10 | 134 | 8.0 | 16.1 | 0.00 | 0.00 | 0.00 | 50 | 1012.3 |
| 20260509124421 | 10 | 136 | 8.0 | 16.1 | 0.00 | 0.00 | 0.00 | 49 | 1012.3 |
| 20260509124250 | 10 | 142 | 8.0 | 16.1 | 0.00 | 0.00 | 0.00 | 49 | 1012.3 |
| 20260509124153 | 10 | 169 | 8.0 | 16.1 | 0.00 | 0.00 | 0.00 | 49 | 1012.3 |
| 20260509124036 | 10 | 158 | 9.7 | 16.1 | 0.00 | 0.00 | 0.00 | 49 | 1012.3 |
| 20260509123943 | 10 | 148 | 9.7 | 16.1 | 0.00 | 0.00 | 0.00 | 49 | 1012.3 |
| 20260509123836 | 10 | 140 | 9.7 | 17.7 | 0.00 | 0.00 | 0.00 | 49 | 1012.3 |
| 20260509123800 | 10 | 133 | 9.7 | 19.3 | 0.00 | 0.00 | 0.00 | 49 | 1012.3 |
| 20260509123704 | 10 | 123 | 9.7 | 19.3 | 0.00 | 0.00 | 0.00 | 49 | 1012.4 |
| 20260509123626 | 10 | 183 | 11.3 | 19.3 | 0.00 | 0.00 | 0.00 | 49 | 1012.3 |
| 20260509123429 | 10 | 142 | 8.0 | 19.3 | 0.00 | 0.00 | 0.00 | 49 | 1012.4 |
| 20260509123342 | 10 | 150 | 6.4 | 19.3 | 0.00 | 0.00 | 0.00 | 49 | 1012.4 |
| 20260509123224 | 10 | 153 | 8.0 | 19.3 | 0.00 | 0.00 | 0.00 | 48 | 1012.4 |
| 20260509123148 | 10 | 153 | 9.7 | 19.3 | 0.00 | 0.00 | 0.00 | 48 | 1012.4 |
| 20260509123033 | 10 | 189 | 9.7 | 19.3 | 0.00 | 0.00 | 0.00 | 48 | 1012.4 |
| 20260509122956 | 10 | 163 | 9.7 | 20.9 | 0.00 | 0.00 | 0.00 | 48 | 1012.4 |
| 20260509122918 | 10 | 117 | 9.7 | 19.3 | 0.00 | 0.00 | 0.00 | 48 | 1012.4 |
| 20260509122721 | 10 | 167 | 9.7 | 19.3 | 0.00 | 0.00 | 0.00 | 47 | 1012.5 |
| 20260509122635 | 10 | 140 | 9.7 | 19.3 | 0.00 | 0.00 | 0.00 | 47 | 1012.5 |
| 20260509122537 | 10 | 126 | 9.7 | 19.3 | 0.00 | 0.00 | 0.00 | 46 | 1012.5 |
| 20260509122500 | 10 | 149 | 6.4 | 14.5 | 0.00 | 0.00 | 0.00 | 46 | 1012.5 |
| 20260509122423 | 10 | 129 | 6.4 | 14.5 | 0.00 | 0.00 | 0.00 | 45 | 1012.5 |
| 20260509122225 | 9 | 146 | 8.0 | 14.5 | 0.00 | 0.00 | 0.00 | 43 | 1012.5 |
| 20260509122149 | 9 | 135 | 8.0 | 12.9 | 0.00 | 0.00 | 0.00 | 43 | 1012.5 |
| 20260509122058 | 9 | 147 | 6.4 | 12.9 | 0.00 | 0.00 | 0.00 | 43 | 1012.5 |
| 20260509122020 | 9 | 172 | 6.4 | 12.9 | 0.00 | 0.00 | 0.00 | 42 | 1012.5 |
| 20260509121825 | 9 | 161 | 6.4 | 12.9 | 0.00 | 0.00 | 0.00 | 39 | 1012.5 |
| 20260509121727 | 9 | 185 | 6.4 | 12.9 | 0.00 | 0.00 | 0.00 | 40 | 1012.5 |
| 20260509121630 | 9 | 193 | 6.4 | 12.9 | 0.00 | 0.00 | 0.00 | 38 | 1012.5 |
| 20260509121552 | 9 | 114 | 4.8 | 12.9 | 0.00 | 0.00 | 0.00 | 37 | 1012.5 |
| 20260509121515 | 8 | 153 | 4.8 | 12.9 | 0.00 | 0.00 | 0.00 | 38 | 1012.6 |
| 20260509121330 | 8 | 140 | 3.2 | 12.9 | 0.00 | 0.00 | 0.00 | 37 | 1012.6 |
| 20260509121231 | 8 | 154 | 4.8 | 12.9 | 0.00 | 0.00 | 0.00 | 35 | 1012.5 |
| 20260509121150 | 8 | 146 | 6.4 | 12.9 | 0.00 | 0.00 | 0.00 | 35 | 1012.6 |
| 20260509121050 | 8 | 149 | 8.0 | 12.9 | 0.00 | 0.00 | 0.00 | 34 | 1012.6 |
| 20260509120922 | 8 | 178 | 8.0 | 14.5 | 0.00 | 0.00 | 0.00 | 30 | 1012.6 |
| 20260509120817 | 8 | 167 | 8.0 | 12.9 | 0.00 | 0.00 | 0.00 | 28 | 1012.6 |
| 20260509120647 | 8 | 178 | 4.8 | 11.3 | 0.00 | 0.00 | 0.00 | 19 | 1012.6 |
| 20260509120547 | 8 | 139 | 6.4 | 11.3 | 0.00 | 0.00 | 0.00 | 16 | 1012.6 |
| 20260509120427 | 8 | 123 | 4.8 | 11.3 | 0.00 | 0.00 | 0.00 | 2 | 1012.6 |
| 20260509120349 | 7 | 153 | 4.8 | 9.7 | 0.00 | 0.00 | 0.00 | 2 | 1012.6 |
| 20260509120219 | 7 | 150 | 3.2 | 9.7 | 0.00 | 0.00 | 0.00 | 1 | 1012.6 |
| 20260509120134 | 7 | 139 | 1.6 | 9.7 | 0.00 | 0.00 | 0.00 | 1 | 1012.6 |
| 20260509120004 | 7 | 162 | 4.8 | 9.7 | 0.00 | 0.00 | 0.00 | 1 | 1012.6 |
| 20260509115926 | 7 | 162 | 4.8 | 9.7 | 0.00 | 0.00 | 0.00 | 1 | 1012.6 |
| 20260509115731 | 7 | 155 | 4.8 | 9.7 | 0.00 | 0.00 | 0.00 | 1 | 1012.6 |
| 20260509115655 | 7 | 144 | 4.8 | 9.7 | 0.00 | 0.00 | 0.00 | 1 | 1012.6 |
| 20260509115539 | 7 | 155 | 1.6 | 6.4 | 0.00 | 0.00 | 0.00 | 1 | 1012.6 |
| 20260509115502 | 7 | 164 | 1.6 | 6.4 | 0.00 | 0.00 | 0.00 | 1 | 1012.6 |
| 20260509115324 | 7 | 137 | 1.6 | 6.4 | 0.00 | 0.00 | 0.00 | 1 | 1012.6 |
| 20260509115247 | 6 | 137 | 3.2 | 6.4 | 0.00 | 0.00 | 0.00 | 1 | 1012.6 |
| 20260509115122 | 6 | 204 | 3.2 | 6.4 | 0.00 | 0.00 | 0.00 | 1 | 1012.6 |
| 20260509115027 | 6 | 183 | 1.6 | 6.4 | 0.00 | 0.00 | 0.00 | 1 | 1012.6 |
| 20260509114932 | 6 | 183 | 1.6 | 6.4 | 0.00 | 0.00 | 0.00 | 1 | 1012.6 |
| 20260509114856 | 6 | 119 | 1.6 | 6.4 | 0.00 | 0.00 | 0.00 | 1 | 1012.6 |
| 20260509114740 | 6 | 148 | 1.6 | 6.4 | 0.00 | 0.00 | 0.00 | 1 | 1012.7 |
| 20260509114702 | 6 | 119 | 3.2 | 6.4 | 0.00 | 0.00 | 0.00 | 1 | 1012.7 |
| 20260509114525 | 6 | 173 | 1.6 | 6.4 | 0.00 | 0.00 | 0.00 | 1 | 1012.7 |
| 20260509114448 | 5 | 132 | 1.6 | 6.4 | 0.00 | 0.00 | 0.00 | 1 | 1012.7 |
| 20260509114330 | 5 | 329 | 0.0 | 3.2 | 0.00 | 0.00 | 0.00 | 1 | 1012.7 |
| 20260509114233 | 5 | 137 | 0.0 | 3.2 | 0.00 | 0.00 | 0.00 | 1 | 1012.7 |
| 20260509114157 | 5 | 137 | 1.6 | 3.2 | 0.00 | 0.00 | 0.00 | 1 | 1012.6 |
| 20260509114010 | 5 | 137 | 1.6 | 3.2 | 0.00 | 0.00 | 0.00 | 1 | 1012.7 |
| 20260509113933 | 5 | 137 | 1.6 | 3.2 | 0.00 | 0.00 | 0.00 | 1 | 1012.6 |
| 20260509113805 | 5 | 42 | 1.6 | 3.2 | 0.00 | 0.00 | 0.00 | 1 | 1012.6 |
| 20260509113640 | 5 | 69 | 1.6 | 3.2 | 0.00 | 0.00 | 0.00 | 1 | 1012.6 |
| 20260509113524 | 4 | 169 | 0.0 | 3.2 | 0.00 | 0.00 | 0.00 | 1 | 1012.6 |
| 20260509113446 | 4 | 169 | 1.6 | 3.2 | 0.00 | 0.00 | 0.00 | 1 | 1012.6 |
| 20260509113318 | 4 | 178 | 1.6 | 3.2 | 0.00 | 0.00 | 0.00 | 1 | 1012.6 |
| 20260509113234 | 4 | 178 | 0.0 | 3.2 | 0.00 | 0.00 | 0.00 | 1 | 1012.6 |
| 20260509113104 | 4 | 298 | 0.0 | 1.6 | 0.00 | 0.00 | 0.00 | 1 | 1012.7 |
| 20260509113026 | 4 | 165 | 0.0 | 1.6 | 0.00 | 0.00 | 0.00 | 1 | 1012.6 |
| 20260509112833 | 3 | 165 | 1.6 | 3.2 | 0.00 | 0.00 | 0.00 | 1 | 1012.7 |
| 20260509112755 | 3 | 165 | 0.0 | 3.2 | 0.00 | 0.00 | 0.00 | 1 | 1012.7 |
| 20260509112657 | 3 | 194 | 0.0 | 3.2 | 0.00 | 0.00 | 0.00 | 1 | 1012.7 |
| 20260509112600 | 3 | 80 | 0.0 | 3.2 | 0.00 | 0.00 | 0.00 | 1 | 1012.7 |
| 20260509112522 | 3 | 79 | 0.0 | 3.2 | 0.00 | 0.00 | 0.00 | 1 | 1012.7 |
| 20260509112353 | 3 | 107 | 0.0 | 3.2 | 0.00 | 0.00 | 0.00 | 1 | 1012.6 |
| 20260509112225 | 3 | 190 | 0.0 | 3.2 | 0.00 | 0.00 | 0.00 | 1 | 1012.7 |
| 20260509112149 | 3 | 190 | 0.0 | 3.2 | 0.00 | 0.00 | 0.00 | 1 | 1012.7 |
| 20260509112104 | 3 | 5 | 0.0 | 1.6 | 0.00 | 0.00 | 0.00 | 1 | 1012.7 |
| 20260509112006 | 3 | 360 | 0.0 | 1.6 | 0.00 | 0.00 | 0.00 | 1 | 1012.7 |
| 20260509111929 | 3 | 360 | 0.0 | 1.6 | 0.00 | 0.00 | 0.00 | 1 | 1012.6 |
| 20260509111804 | 3 | 142 | 0.0 | 1.6 | 0.00 | 0.00 | 0.00 | 1 | 1012.7 |
| 20260509111727 | 3 | 142 | 0.0 | 1.6 | 0.00 | 0.00 | 0.00 | 1 | 1012.7 |
| 20260509111539 | 2 | 334 | 0.0 | 0.0 | 0.00 | 0.00 | 0.00 | 1 | 1012.7 |
| 20260509111433 | 2 | 282 | 0.0 | 0.0 | 0.00 | 0.00 | 0.00 | 1 | 1012.7 |
| 20260509111357 | 2 | 282 | 0.0 | 0.0 | 0.00 | 0.00 | 0.00 | 1 | 1012.7 |
| 20260509111237 | 2 | 283 | 0.0 | 1.6 | 0.00 | 0.00 | 0.00 | 1 | 1012.7 |
| 20260509111132 | 2 | 283 | 0.0 | 1.6 | 0.00 | 0.00 | 0.00 | 1 | 1012.6 |
| 20260509111052 | 2 | 281 | 0.0 | 1.6 | 0.00 | 0.00 | 0.00 | 1 | 1012.7 |
| 20260509110955 | 2 | 57 | 0.0 | 1.6 | 0.00 | 0.00 | 0.00 | 1 | 1012.7 |
| 20260509110910 | 2 | 80 | 0.0 | 1.6 | 0.00 | 0.00 | 0.00 | 1 | 1012.6 |
| 20260509110723 | 2 | 13 | 0.0 | 1.6 | 0.00 | 0.00 | 0.00 | 1 | 1012.6 |
| 20260509110624 | 2 | 348 | 0.0 | 1.6 | 0.00 | 0.00 | 0.00 | 1 | 1012.6 |
| 20260509110426 | 1 | 337 | 0.0 | 0.0 | 0.00 | 0.00 | 0.00 | 1 | 1012.6 |
| 20260509110350 | 1 | 333 | 0.0 | 0.0 | 0.00 | 0.00 | 0.00 | 1 | 1012.6 |
| 20260509110254 | 1 | 331 | 0.0 | 1.6 | 0.00 | 0.00 | 0.00 | 1 | 1012.6 |
| 20260509110137 | 1 | 330 | 0.0 | 1.6 | 0.00 | 0.00 | 0.00 | 1 | 1012.6 |
| 20260509110031 | 1 | 329 | 0.0 | 1.6 | 0.00 | 0.00 | 0.00 | 1 | 1012.6 |
| 20260509105953 | 1 | 159 | 0.0 | 1.6 | 0.00 | 0.00 | 0.00 | 1 | 1012.6 |
| 20260509105916 | 1 | 159 | 0.0 | 1.6 | 0.00 | 0.00 | 0.00 | 1 | 1012.6 |
| 20260509105744 | 1 | 291 | 0.0 | 1.6 | 0.00 | 0.00 | 0.00 | 1 | 1012.6 |
| 20260509105706 | 1 | 104 | 0.0 | 1.6 | 0.00 | 0.00 | 0.00 | 1 | 1012.6 |
| 20260509105540 | 1 | 89 | 0.0 | 1.6 | 0.00 | 0.00 | 0.00 | 1 | 1012.6 |
| 20260509105504 | 1 | 89 | 0.0 | 1.6 | 0.00 | 0.00 | 0.00 | 1 | 1012.6 |
| 20260509105418 | 1 | 91 | 0.0 | 1.6 | 0.00 | 0.00 | 0.00 | 1 | 1012.6 |
| 20260509105229 | 1 | 28 | 0.0 | 1.6 | 0.00 | 0.00 | 0.00 | 1 | 1012.6 |
| 20260509105123 | 0 | 355 | 0.0 | 1.6 | 0.00 | 0.00 | 0.00 | 1 | 1012.6 |
| 20260509105045 | 0 | 192 | 0.0 | 1.6 | 0.00 | 0.00 | 0.00 | 1 | 1012.6 |
| 20260509104925 | 0 | 187 | 0.0 | 1.6 | 0.00 | 0.00 | 0.00 | 1 | 1012.6 |
| 20260509104839 | 0 | 140 | 0.0 | 1.6 | 0.00 | 0.00 | 0.00 | 1 | 1012.5 |
| 20260509104710 | 0 | 225 | 0.0 | 1.6 | 0.00 | 0.00 | 0.00 | 1 | 1012.6 |
| 20260509104632 | 0 | 225 | 0.0 | 1.6 | 0.00 | 0.00 | 0.00 | 1 | 1012.6 |
| 20260509104434 | 0 | 105 | 0.0 | 1.6 | 0.00 | 0.00 | 0.00 | 1 | 1012.6 |
| 20260509104336 | 0 | 109 | 0.0 | 1.6 | 0.00 | 0.00 | 0.00 | 1 | 1012.6 |
| 20260509104231 | 0 | 110 | 0.0 | 1.6 | 0.00 | 0.00 | 0.00 | 1 | 1012.6 |
| 20260509104204 | 0 | 120 | 0.0 | 1.6 | 0.00 | 0.00 | 0.00 | 1 | 1012.5 |
| 20260509104048 | 0 | 105 | 0.0 | 1.6 | 0.00 | 0.00 | 0.00 | 1 | 1012.5 |
| 20260509103949 | 0 | 105 | 0.0 | 1.6 | 0.00 | 0.00 | 0.00 | 1 | 1012.5 |
| 20260509103854 | 0 | 105 | 0.0 | 1.6 | 0.00 | 0.00 | 0.00 | 1 | 1012.5 |
| 20260509103800 | 0 | 114 | 0.0 | 1.6 | 0.00 | 0.00 | 0.00 | 1 | 1012.6 |
| 20260509103609 | 0 | 135 | 0.0 | 3.2 | 0.00 | 0.00 | 0.00 | 1 | 1012.6 |
| 20260509103531 | 0 | 135 | 0.0 | 3.2 | 0.00 | 0.00 | 0.00 | 1 | 1012.5 |
| 20260509103335 | 0 | 135 | 0.0 | 3.2 | 0.00 | 0.00 | 0.00 | 1 | 1012.5 |
| 20260509103256 | 0 | 140 | 0.0 | 3.2 | 0.00 | 0.00 | 0.00 | 1 | 1012.4 |
| 20260509103129 | 0 | 175 | 0.0 | 3.2 | 0.00 | 0.00 | 0.00 | 1 | 1012.5 |
| 20260509103051 | -1 | 175 | 0.0 | 3.2 | 0.00 | 0.00 | 0.00 | 1 | 1012.5 |
| 20260509102934 | -1 | 173 | 0.0 | 3.2 | 0.00 | 0.00 | 0.00 | 1 | 1012.5 |
| 20260509102858 | -1 | 173 | 0.0 | 3.2 | 0.00 | 0.00 | 0.00 | 1 | 1012.5 |
| 20260509102825 | -1 | 173 | 1.6 | 3.2 | 0.00 | 0.00 | 0.00 | 1 | 1012.5 |
| 20260509102628 | -1 | 173 | 0.0 | 1.6 | 0.00 | 0.00 | 0.00 | 1 | 1012.4 |
| 20260509102552 | -1 | 173 | 0.0 | 1.6 | 0.00 | 0.00 | 0.00 | 1 | 1012.4 |
| 20260509102455 | -1 | 173 | 0.0 | 1.6 | 0.00 | 0.00 | 0.00 | 1 | 1012.4 |
| 20260509102356 | -1 | 173 | 0.0 | 1.6 | 0.00 | 0.00 | 0.00 | 1 | 1012.4 |
| 20260509102320 | -1 | 153 | 0.0 | 1.6 | 0.00 | 0.00 | 0.00 | 1 | 1012.4 |
| 20260509102213 | -1 | 153 | 0.0 | 1.6 | 0.00 | 0.00 | 0.00 | 1 | 1012.3 |
| 20260509102136 | -1 | 40 | 0.0 | 0.0 | 0.00 | 0.00 | 0.00 | 1 | 1012.3 |
| 20260509101944 | -1 | 40 | 0.0 | 0.0 | 0.00 | 0.00 | 0.00 | 1 | 1012.4 |
| 20260509101848 | -1 | 40 | 0.0 | 0.0 | 0.00 | 0.00 | 0.00 | 1 | 1012.4 |
| 20260509101725 | -1 | 40 | 0.0 | 0.0 | 0.00 | 0.00 | 0.00 | 1 | 1012.4 |
| 20260509101628 | -1 | 40 | 0.0 | 0.0 | 0.00 | 0.00 | 0.00 | 1 | 1012.4 |
| 20260509101549 | -1 | 40 | 0.0 | 0.0 | 0.00 | 0.00 | 0.00 | 1 | 1012.4 |
| 20260509101421 | -1 | 40 | 0.0 | 0.0 | 0.00 | 0.00 | 0.00 | 1 | 1012.4 |
| 20260509101336 | -1 | 40 | 0.0 | 0.0 | 0.00 | 0.00 | 0.00 | 1 | 1012.4 |
| 20260509101205 | -1 | 40 | 0.0 | 0.0 | 0.00 | 0.00 | 0.00 | 1 | 1012.3 |
| 20260509101127 | -1 | 40 | 0.0 | 0.0 | 0.00 | 0.00 | 0.00 | 1 | 1012.4 |
| 20260509100931 | -1 | 40 | 0.0 | 1.6 | 0.00 | 0.00 | 0.00 | 1 | 1012.4 |
| 20260509100852 | -1 | 321 | 0.0 | 1.6 | 0.00 | 0.00 | 0.00 | 1 | 1012.4 |
| 20260509100736 | -1 | 321 | 0.0 | 1.6 | 0.00 | 0.00 | 0.00 | 1 | 1012.3 |
| 20260509100658 | -1 | 319 | 0.0 | 1.6 | 0.00 | 0.00 | 0.00 | 1 | 1012.3 |
| 20260509100526 | -1 | 35 | 0.0 | 1.6 | 0.00 | 0.00 | 0.00 | 1 | 1012.3 |
| 20260509100449 | -1 | 36 | 0.0 | 1.6 | 0.00 | 0.00 | 0.00 | 1 | 1012.3 |
| 20260509100313 | -1 | 42 | 0.0 | 1.6 | 0.00 | 0.00 | 0.00 | 1 | 1012.3 |
| 20260509100244 | -1 | 5 | 0.0 | 1.6 | 0.00 | 0.00 | 0.00 | 1 | 1012.4 |
| 20260509100029 | -1 | 336 | 0.0 | 0.0 | 0.00 | 0.00 | 0.00 | 1 | 1012.4 |
| 20260509095932 | -1 | 5 | 0.0 | 1.6 | 0.00 | 0.00 | 0.00 | 1 | 1012.4 |
| 20260509095836 | -1 | 5 | 0.0 | 1.6 | 0.00 | 0.00 | 0.00 | 1 | 1012.4 |
| 20260509095758 | -1 | 5 | 0.0 | 1.6 | 0.00 | 0.00 | 0.00 | 1 | 1012.4 |
| 20260509095609 | -1 | 355 | 0.0 | 1.6 | 0.00 | 0.00 | 0.00 | 1 | 1012.4 |
| 20260509095528 | -1 | 355 | 0.0 | 1.6 | 0.00 | 0.00 | 0.00 | 1 | 1012.3 |
| 20260509095337 | -1 | 355 | 0.0 | 1.6 | 0.00 | 0.00 | 0.00 | 1 | 1012.3 |
| 20260509095233 | -1 | 355 | 0.0 | 1.6 | 0.00 | 0.00 | 0.00 | 1 | 1012.3 |
| 20260509095129 | -1 | 355 | 0.0 | 1.6 | 0.00 | 0.00 | 0.00 | 1 | 1012.3 |
| 20260509095030 | -1 | 5 | 0.0 | 0.0 | 0.00 | 0.00 | 0.00 | 1 | 1012.3 |
| 20260509094955 | -1 | 15 | 0.0 | 0.0 | 0.00 | 0.00 | 0.00 | 1 | 1012.3 |
| 20260509094837 | -1 | 325 | 0.0 | 0.0 | 0.00 | 0.00 | 0.00 | 1 | 1012.3 |
| 20260509094801 | -1 | 325 | 0.0 | 0.0 | 0.00 | 0.00 | 0.00 | 1 | 1012.3 |
| 20260509094728 | -1 | 325 | 0.0 | 0.0 | 0.00 | 0.00 | 0.00 | 1 | 1012.3 |
| 20260509094559 | -1 | 325 | 0.0 | 0.0 | 0.00 | 0.00 | 0.00 | 1 | 1012.3 |
| 20260509094501 | -1 | 325 | 0.0 | 0.0 | 0.00 | 0.00 | 0.00 | 1 | 1012.3 |
| 20260509094416 | -1 | 325 | 0.0 | 0.0 | 0.00 | 0.00 | 0.00 | 1 | 1012.3 |
| 20260509094228 | -1 | 259 | 0.0 | 0.0 | 0.00 | 0.00 | 0.00 | 1 | 1012.3 |
| 20260509094123 | -1 | 242 | 0.0 | 0.0 | 0.00 | 0.00 | 0.00 | 1 | 1012.3 |
| 20260509094018 | -1 | 242 | 0.0 | 0.0 | 0.00 | 0.00 | 0.00 | 1 | 1012.2 |
| 20260509093952 | -1 | 18 | 0.0 | 0.0 | 0.00 | 0.00 | 0.00 | 1 | 1012.2 |
| 20260509093914 | -1 | 100 | 0.0 | 0.0 | 0.00 | 0.00 | 0.00 | 1 | 1012.2 |
| 20260509093736 | -1 | 100 | 0.0 | 0.0 | 0.00 | 0.00 | 0.00 | 1 | 1012.2 |
| 20260509093644 | -1 | 100 | 0.0 | 0.0 | 0.00 | 0.00 | 0.00 | 1 | 1012.2 |
| 20260509093529 | -1 | 100 | 0.0 | 0.0 | 0.00 | 0.00 | 0.00 | 1 | 1012.1 |
| 20260509093452 | -1 | 100 | 0.0 | 0.0 | 0.00 | 0.00 | 0.00 | 1 | 1012.1 |
| 20260509093210 | -1 | 100 | 0.0 | 0.0 | 0.00 | 0.00 | 0.00 | 1 | 1012.1 |
| 20260509093024 | -1 | 100 | 0.0 | 0.0 | 0.00 | 0.00 | 0.00 | 1 | 1012.1 |
| 20260509092928 | -1 | 100 | 0.0 | 0.0 | 0.00 | 0.00 | 0.00 | 1 | 1012.1 |
| 20260509092852 | -1 | 100 | 0.0 | 0.0 | 0.00 | 0.00 | 0.00 | 1 | 1012.1 |
| 20260509092814 | -1 | 100 | 0.0 | 0.0 | 0.00 | 0.00 | 0.00 | 1 | 1012.1 |
| 20260509092656 | -1 | 100 | 0.0 | 0.0 | 0.00 | 0.00 | 0.00 | 1 | 1012.1 |
| 20260509092543 | -1 | 100 | 0.0 | 0.0 | 0.00 | 0.00 | 0.00 | 1 | 1012.1 |
| 20260509092446 | -1 | 100 | 0.0 | 0.0 | 0.00 | 0.00 | 0.00 | 1 | 1012.0 |
| 20260509092328 | -1 | 100 | 0.0 | 0.0 | 0.00 | 0.00 | 0.00 | 1 | 1012.0 |
| 20260509092232 | -1 | 100 | 0.0 | 0.0 | 0.00 | 0.00 | 0.00 | 1 | 1012.0 |
| 20260509092134 | -1 | 100 | 0.0 | 0.0 | 0.00 | 0.00 | 0.00 | 1 | 1012.0 |
| 20260509091915 | -1 | 100 | 0.0 | 0.0 | 0.00 | 0.00 | 0.00 | 1 | 1012.0 |
| 20260509091846 | -1 | 100 | 0.0 | 0.0 | 0.00 | 0.00 | 0.00 | 1 | 1012.0 |
| 20260509091724 | -1 | 100 | 0.0 | 0.0 | 0.00 | 0.00 | 0.00 | 1 | 1012.0 |
| 20260509091647 | -1 | 100 | 0.0 | 0.0 | 0.00 | 0.00 | 0.00 | 1 | 1012.0 |
| 20260509091522 | -1 | 100 | 0.0 | 0.0 | 0.00 | 0.00 | 0.00 | 1 | 1012.0 |
| 20260509091425 | -1 | 100 | 0.0 | 0.0 | 0.00 | 0.00 | 0.00 | 1 | 1012.0 |
| 20260509091348 | -1 | 100 | 0.0 | 0.0 | 0.00 | 0.00 | 0.00 | 1 | 1012.0 |
| 20260509091311 | -1 | 100 | 0.0 | 0.0 | 0.00 | 0.00 | 0.00 | 1 | 1011.9 |
| 20260509091133 | -1 | 100 | 0.0 | 0.0 | 0.00 | 0.00 | 0.00 | 1 | 1012.0 |
| 20260509091057 | -1 | 100 | 0.0 | 0.0 | 0.00 | 0.00 | 0.00 | 1 | 1012.0 |
| 20260509091012 | -1 | 100 | 0.0 | 0.0 | 0.00 | 0.00 | 0.00 | 1 | 1012.0 |
| 20260509090842 | -1 | 100 | 0.0 | 0.0 | 0.00 | 0.00 | 0.00 | 1 | 1012.0 |
| 20260509090746 | -1 | 100 | 0.0 | 0.0 | 0.00 | 0.00 | 0.00 | 1 | 1012.0 |
| 20260509090611 | -1 | 100 | 0.0 | 0.0 | 0.00 | 0.00 | 0.00 | 1 | 1012.0 |
| 20260509090533 | -1 | 100 | 0.0 | 0.0 | 0.00 | 0.00 | 0.00 | 1 | 1012.0 |
| 20260509090345 | -1 | 100 | 0.0 | 0.0 | 0.00 | 0.00 | 0.00 | 1 | 1011.9 |
| 20260509090238 | -1 | 100 | 0.0 | 0.0 | 0.00 | 0.00 | 0.00 | 1 | 1012.0 |
| 20260509090202 | -1 | 100 | 0.0 | 0.0 | 0.00 | 0.00 | 0.00 | 1 | 1012.0 |
| 20260509090105 | -1 | 100 | 0.0 | 0.0 | 0.00 | 0.00 | 0.00 | 1 | 1012.0 |
| 20260509090026 | -1 | 100 | 0.0 | 0.0 | 0.00 | 0.00 | 0.00 | 1 | 1012.0 |
| 20260509085856 | -1 | 100 | 0.0 | 0.0 | 0.00 | 0.00 | 0.00 | 1 | 1012.0 |
| 20260509085714 | -1 | 100 | 0.0 | 0.0 | 0.00 | 0.00 | 0.00 | 1 | 1012.0 |
| 20260509085629 | -1 | 100 | 0.0 | 0.0 | 0.00 | 0.00 | 0.00 | 1 | 1011.9 |
| 20260509085552 | -1 | 100 | 0.0 | 0.0 | 0.00 | 0.00 | 0.00 | 1 | 1011.9 |
| 20260509085515 | -1 | 100 | 0.0 | 0.0 | 0.00 | 0.00 | 0.00 | 1 | 1011.9 |
| 20260509085420 | -1 | 100 | 0.0 | 0.0 | 0.00 | 0.00 | 0.00 | 1 | 1011.9 |
| 20260509085340 | -1 | 100 | 0.0 | 0.0 | 0.00 | 0.00 | 0.00 | 1 | 1011.9 |
| 20260509085210 | -1 | 100 | 0.0 | 0.0 | 0.00 | 0.00 | 0.00 | 1 | 1011.9 |
| 20260509085024 | -1 | 100 | 0.0 | 0.0 | 0.00 | 0.00 | 0.00 | 1 | 1011.9 |
| 20260509084937 | -1 | 100 | 0.0 | 0.0 | 0.00 | 0.00 | 0.00 | 1 | 1011.9 |
| 20260509084841 | -1 | 100 | 0.0 | 0.0 | 0.00 | 0.00 | 0.00 | 1 | 1011.9 |
| 20260509084740 | -1 | 100 | 0.0 | 0.0 | 0.00 | 0.00 | 0.00 | 1 | 1011.9 |
| 20260509084624 | -1 | 100 | 0.0 | 0.0 | 0.00 | 0.00 | 0.00 | 1 | 1011.9 |
| 20260509084526 | -1 | 100 | 0.0 | 0.0 | 0.00 | 0.00 | 0.00 | 1 | 1011.9 |
| 20260509084450 | -1 | 100 | 0.0 | 0.0 | 0.00 | 0.00 | 0.00 | 1 | 1011.9 |
| 20260509084353 | -1 | 100 | 0.0 | 0.0 | 0.00 | 0.00 | 0.00 | 1 | 1011.9 |
| 20260509084234 | -1 | 100 | 0.0 | 0.0 | 0.00 | 0.00 | 0.00 | 1 | 1011.9 |
| 20260509084149 | -1 | 100 | 0.0 | 0.0 | 0.00 | 0.00 | 0.00 | 1 | 1011.8 |
| 20260509084028 | -1 | 100 | 0.0 | 0.0 | 0.00 | 0.00 | 0.00 | 1 | 1011.8 |
| 20260509083935 | -1 | 100 | 0.0 | 0.0 | 0.00 | 0.00 | 0.00 | 1 | 1011.8 |
| 20260509083856 | -1 | 100 | 0.0 | 0.0 | 0.00 | 0.00 | 0.00 | 1 | 1011.9 |
| 20260509083758 | -1 | 100 | 0.0 | 0.0 | 0.00 | 0.00 | 0.00 | 1 | 1011.9 |
| 20260509083623 | -1 | 100 | 0.0 | 0.0 | 0.00 | 0.00 | 0.00 | 1 | 1011.9 |
| 20260509083538 | -1 | 100 | 0.0 | 0.0 | 0.00 | 0.00 | 0.00 | 1 | 1011.9 |
| 20260509083409 | -1 | 100 | 0.0 | 0.0 | 0.00 | 0.00 | 0.00 | 1 | 1011.9 |
| 20260509083331 | -1 | 100 | 0.0 | 0.0 | 0.00 | 0.00 | 0.00 | 1 | 1011.9 |
| 20260509083133 | -1 | 100 | 0.0 | 0.0 | 0.00 | 0.00 | 0.00 | 1 | 1011.9 |
| 20260509083057 | -1 | 100 | 0.0 | 0.0 | 0.00 | 0.00 | 0.00 | 1 | 1011.9 |
| 20260509082946 | -1 | 100 | 0.0 | 0.0 | 0.00 | 0.00 | 0.00 | 1 | 1012.0 |
| 20260509082908 | -1 | 100 | 0.0 | 0.0 | 0.00 | 0.00 | 0.00 | 1 | 1012.0 |
| 20260509082646 | -1 | 100 | 0.0 | 0.0 | 0.00 | 0.00 | 0.00 | 1 | 1012.0 |
| 20260509082542 | -1 | 100 | 0.0 | 0.0 | 0.00 | 0.00 | 0.00 | 1 | 1012.0 |
| 20260509082446 | -1 | 100 | 0.0 | 0.0 | 0.00 | 0.00 | 0.00 | 1 | 1012.0 |
| 20260509082340 | -1 | 100 | 0.0 | 0.0 | 0.00 | 0.00 | 0.00 | 1 | 1012.0 |
| 20260509082306 | -1 | 100 | 0.0 | 0.0 | 0.00 | 0.00 | 0.00 | 1 | 1012.0 |
| 20260509082219 | -1 | 100 | 0.0 | 0.0 | 0.00 | 0.00 | 0.00 | 1 | 1012.0 |
| 20260509082028 | -1 | 100 | 0.0 | 0.0 | 0.00 | 0.00 | 0.00 | 1 | 1012.0 |
| 20260509081944 | -1 | 100 | 0.0 | 0.0 | 0.00 | 0.00 | 0.00 | 1 | 1012.0 |
| 20260509081819 | -1 | 100 | 0.0 | 0.0 | 0.00 | 0.00 | 0.00 | 1 | 1012.0 |
| 20260509081719 | -1 | 100 | 0.0 | 0.0 | 0.00 | 0.00 | 0.00 | 1 | 1011.9 |
| 20260509081521 | -1 | 100 | 0.0 | 0.0 | 0.00 | 0.00 | 0.00 | 1 | 1012.0 |
| 20260509081445 | -1 | 100 | 0.0 | 0.0 | 0.00 | 0.00 | 0.00 | 1 | 1012.0 |
| 20260509081328 | -1 | 100 | 0.0 | 0.0 | 0.00 | 0.00 | 0.00 | 1 | 1012.0 |
| 20260509081251 | -1 | 100 | 0.0 | 0.0 | 0.00 | 0.00 | 0.00 | 1 | 1012.0 |
| 20260509081203 | -1 | 100 | 0.0 | 0.0 | 0.00 | 0.00 | 0.00 | 1 | 1012.0 |
| 20260509081047 | -1 | 100 | 0.0 | 0.0 | 0.00 | 0.00 | 0.00 | 1 | 1012.1 |
| 20260509080947 | -1 | 100 | 0.0 | 0.0 | 0.00 | 0.00 | 0.00 | 1 | 1012.1 |
| 20260509080849 | -1 | 100 | 0.0 | 0.0 | 0.00 | 0.00 | 0.00 | 1 | 1012.1 |
| 20260509080753 | -1 | 100 | 0.0 | 0.0 | 0.00 | 0.00 | 0.00 | 1 | 1012.1 |
| 20260509080659 | -1 | 100 | 0.0 | 0.0 | 0.00 | 0.00 | 0.00 | 1 | 1012.1 |
| 20260509080621 | -1 | 100 | 0.0 | 0.0 | 0.00 | 0.00 | 0.00 | 1 | 1012.1 |
| 20260509080423 | -1 | 100 | 0.0 | 0.0 | 0.00 | 0.00 | 0.00 | 1 | 1012.1 |
| 20260509080345 | -1 | 100 | 0.0 | 0.0 | 0.00 | 0.00 | 0.00 | 1 | 1012.1 |
| 20260509080228 | -1 | 100 | 0.0 | 0.0 | 0.00 | 0.00 | 0.00 | 1 | 1012.2 |
| 20260509080123 | -1 | 100 | 0.0 | 0.0 | 0.00 | 0.00 | 0.00 | 1 | 1012.2 |
| 20260509080045 | -1 | 100 | 0.0 | 0.0 | 0.00 | 0.00 | 0.00 | 1 | 1012.2 |
| 20260509080008 | -1 | 100 | 0.0 | 0.0 | 0.00 | 0.00 | 0.00 | 1 | 1012.1 |
| 20260509075923 | -1 | 100 | 0.0 | 0.0 | 0.00 | 0.00 | 0.00 | 1 | 1012.1 |
| 20260509075737 | -1 | 100 | 0.0 | 0.0 | 0.00 | 0.00 | 0.00 | 1 | 1012.1 |
| 20260509075652 | -1 | 100 | 0.0 | 0.0 | 0.00 | 0.00 | 0.00 | 1 | 1012.1 |
| 20260509075613 | -1 | 100 | 0.0 | 0.0 | 0.00 | 0.00 | 0.00 | 1 | 1012.1 |
| 20260509075434 | -1 | 100 | 0.0 | 0.0 | 0.00 | 0.00 | 0.00 | 1 | 1012.1 |
| 20260509075328 | -1 | 100 | 0.0 | 0.0 | 0.00 | 0.00 | 0.00 | 1 | 1012.1 |
| 20260509075251 | -1 | 100 | 0.0 | 0.0 | 0.00 | 0.00 | 0.00 | 1 | 1012.1 |
| 20260509075155 | -1 | 100 | 0.0 | 0.0 | 0.00 | 0.00 | 0.00 | 1 | 1012.1 |
| 20260509075118 | -1 | 100 | 0.0 | 0.0 | 0.00 | 0.00 | 0.00 | 1 | 1012.1 |
| 20260509074924 | -1 | 100 | 0.0 | 0.0 | 0.00 | 0.00 | 0.00 | 1 | 1012.1 |
| 20260509074829 | -1 | 100 | 0.0 | 0.0 | 0.00 | 0.00 | 0.00 | 1 | 1012.1 |
| 20260509074731 | -1 | 100 | 0.0 | 0.0 | 0.00 | 0.00 | 0.00 | 1 | 1012.1 |
| 20260509074654 | -1 | 100 | 0.0 | 0.0 | 0.00 | 0.00 | 0.00 | 1 | 1012.1 |
| 20260509074616 | -1 | 100 | 0.0 | 0.0 | 0.00 | 0.00 | 0.00 | 1 | 1012.1 |
| 20260509074439 | -1 | 100 | 0.0 | 0.0 | 0.00 | 0.00 | 0.00 | 1 | 1012.1 |
| 20260509074342 | -1 | 100 | 0.0 | 0.0 | 0.00 | 0.00 | 0.00 | 1 | 1012.1 |
| 20260509074225 | -1 | 100 | 0.0 | 0.0 | 0.00 | 0.00 | 0.00 | 1 | 1012.1 |
| 20260509074147 | -1 | 100 | 0.0 | 0.0 | 0.00 | 0.00 | 0.00 | 1 | 1012.1 |
| 20260509074011 | -1 | 100 | 0.0 | 0.0 | 0.00 | 0.00 | 0.00 | 1 | 1012.1 |
| 20260509073933 | -1 | 100 | 0.0 | 0.0 | 0.00 | 0.00 | 0.00 | 1 | 1012.1 |
| 20260509073751 | -1 | 100 | 0.0 | 0.0 | 0.00 | 0.00 | 0.00 | 1 | 1012.1 |
| 20260509073656 | -1 | 100 | 0.0 | 0.0 | 0.00 | 0.00 | 0.00 | 1 | 1012.1 |
| 20260509073559 | -1 | 100 | 0.0 | 0.0 | 0.00 | 0.00 | 0.00 | 1 | 1012.1 |
| 20260509073523 | -1 | 100 | 0.0 | 0.0 | 0.00 | 0.00 | 0.00 | 1 | 1012.1 |
| 20260509073326 | -1 | 100 | 0.0 | 0.0 | 0.00 | 0.00 | 0.00 | 1 | 1012.1 |
| 20260509073228 | -1 | 100 | 0.0 | 0.0 | 0.00 | 0.00 | 0.00 | 1 | 1012.1 |
| 20260509073132 | -1 | 100 | 0.0 | 0.0 | 0.00 | 0.00 | 0.00 | 1 | 1012.1 |
| 20260509073053 | -1 | 100 | 0.0 | 0.0 | 0.00 | 0.00 | 0.00 | 1 | 1012.1 |
| 20260509073016 | -1 | 100 | 0.0 | 0.0 | 0.00 | 0.00 | 0.00 | 1 | 1012.1 |
| 20260509072840 | -1 | 100 | 0.0 | 0.0 | 0.00 | 0.00 | 0.00 | 1 | 1012.1 |
| 20260509072741 | -1 | 100 | 0.0 | 0.0 | 0.00 | 0.00 | 0.00 | 1 | 1012.1 |
| 20260509072627 | -1 | 100 | 0.0 | 0.0 | 0.00 | 0.00 | 0.00 | 1 | 1012.1 |
| 20260509072551 | -1 | 100 | 0.0 | 0.0 | 0.00 | 0.00 | 0.00 | 1 | 1012.1 |
| 20260509072504 | -1 | 101 | 0.0 | 0.0 | 0.00 | 0.00 | 0.00 | 1 | 1012.1 |
| 20260509072334 | -1 | 102 | 0.0 | 0.0 | 0.00 | 0.00 | 0.00 | 1 | 1012.1 |
| 20260509072235 | -1 | 102 | 0.0 | 0.0 | 0.00 | 0.00 | 0.00 | 1 | 1012.1 |
| 20260509072106 | -1 | 102 | 0.0 | 0.0 | 0.00 | 0.00 | 0.00 | 1 | 1012.2 |
| 20260509071942 | -1 | 102 | 0.0 | 0.0 | 0.00 | 0.00 | 0.00 | 1 | 1012.2 |
| 20260509071904 | -1 | 102 | 0.0 | 0.0 | 0.00 | 0.00 | 0.00 | 1 | 1012.2 |
| 20260509071808 | -1 | 102 | 0.0 | 0.0 | 0.00 | 0.00 | 0.00 | 1 | 1012.2 |
| 20260509071730 | -1 | 102 | 0.0 | 0.0 | 0.00 | 0.00 | 0.00 | 1 | 1012.2 |
| 20260509071537 | -1 | 102 | 0.0 | 0.0 | 0.00 | 0.00 | 0.00 | 1 | 1012.2 |
| 20260509071440 | -1 | 102 | 0.0 | 0.0 | 0.00 | 0.00 | 0.00 | 1 | 1012.2 |
| 20260509071323 | -1 | 102 | 0.0 | 0.0 | 0.00 | 0.00 | 0.00 | 1 | 1012.2 |
| 20260509071247 | -1 | 102 | 0.0 | 0.0 | 0.00 | 0.00 | 0.00 | 1 | 1012.2 |
| 20260509071221 | -1 | 102 | 0.0 | 0.0 | 0.00 | 0.00 | 0.00 | 1 | 1012.2 |
| 20260509071024 | -1 | 102 | 0.0 | 0.0 | 0.00 | 0.00 | 0.00 | 1 | 1012.3 |
| 20260509070939 | -1 | 102 | 0.0 | 0.0 | 0.00 | 0.00 | 0.00 | 1 | 1012.3 |
| 20260509070817 | -1 | 102 | 0.0 | 0.0 | 0.00 | 0.00 | 0.00 | 1 | 1012.3 |
| 20260509070752 | -1 | 102 | 0.0 | 0.0 | 0.00 | 0.00 | 0.00 | 1 | 1012.3 |
| 20260509070714 | -1 | 102 | 0.0 | 0.0 | 0.00 | 0.00 | 0.00 | 1 | 1012.3 |
| 20260509070617 | -1 | 102 | 0.0 | 0.0 | 0.00 | 0.00 | 0.00 | 1 | 1012.3 |
| 20260509070539 | -1 | 102 | 0.0 | 0.0 | 0.00 | 0.00 | 0.00 | 1 | 1012.3 |
| 20260509070408 | -1 | 102 | 0.0 | 0.0 | 0.00 | 0.00 | 0.00 | 1 | 1012.3 |
| 20260509070241 | -1 | 102 | 0.0 | 0.0 | 0.00 | 0.00 | 0.00 | 1 | 1012.3 |
| 20260509070124 | -1 | 102 | 0.0 | 0.0 | 0.00 | 0.00 | 0.00 | 1 | 1012.3 |
| 20260509070046 | -1 | 102 | 0.0 | 0.0 | 0.00 | 0.00 | 0.00 | 1 | 1012.3 |
| 20260509070008 | -1 | 102 | 0.0 | 0.0 | 0.00 | 0.00 | 0.00 | 1 | 1012.3 |
| 20260509065835 | -1 | 102 | 0.0 | 0.0 | 0.00 | 0.00 | 0.00 | 1 | 1012.3 |
| 20260509065756 | -1 | 102 | 0.0 | 0.0 | 0.00 | 0.00 | 0.00 | 1 | 1012.3 |
| 20260509065607 | -1 | 102 | 0.0 | 0.0 | 0.00 | 0.00 | 0.00 | 1 | 1012.3 |
| 20260509065527 | -1 | 102 | 0.0 | 0.0 | 0.00 | 0.00 | 0.00 | 1 | 1012.3 |
| 20260509065339 | -1 | 102 | 0.0 | 0.0 | 0.00 | 0.00 | 0.00 | 1 | 1012.3 |
| 20260509065233 | -1 | 102 | 0.0 | 0.0 | 0.00 | 0.00 | 0.00 | 1 | 1012.3 |
| 20260509065156 | -1 | 102 | 0.0 | 0.0 | 0.00 | 0.00 | 0.00 | 1 | 1012.3 |
| 20260509065023 | -1 | 102 | 0.0 | 0.0 | 0.00 | 0.00 | 0.00 | 1 | 1012.2 |
| 20260509064932 | -1 | 102 | 0.0 | 0.0 | 0.00 | 0.00 | 0.00 | 1 | 1012.2 |
| 20260509064855 | -1 | 102 | 0.0 | 0.0 | 0.00 | 0.00 | 0.00 | 1 | 1012.2 |
| 20260509064738 | -1 | 102 | 0.0 | 0.0 | 0.00 | 0.00 | 0.00 | 1 | 1012.2 |
| 20260509064701 | -1 | 102 | 0.0 | 0.0 | 0.00 | 0.00 | 0.00 | 1 | 1012.2 |
| 20260509064617 | -1 | 102 | 0.0 | 0.0 | 0.00 | 0.00 | 0.00 | 1 | 1012.2 |
| 20260509064426 | -1 | 102 | 0.0 | 0.0 | 0.00 | 0.00 | 0.00 | 1 | 1012.3 |
| 20260509064339 | -1 | 102 | 0.0 | 0.0 | 0.00 | 0.00 | 0.00 | 1 | 1012.2 |
| 20260509064210 | -1 | 102 | 0.0 | 0.0 | 0.00 | 0.00 | 0.00 | 1 | 1012.2 |
| 20260509064132 | -1 | 102 | 0.0 | 0.0 | 0.00 | 0.00 | 0.00 | 1 | 1012.4 |
| 20260509063934 | -1 | 102 | 0.0 | 0.0 | 0.00 | 0.00 | 0.00 | 1 | 1012.3 |
| 20260509063900 | -1 | 102 | 0.0 | 0.0 | 0.00 | 0.00 | 0.00 | 1 | 1012.3 |
| 20260509063805 | -1 | 102 | 0.0 | 1.6 | 0.00 | 0.00 | 0.00 | 1 | 1012.3 |
| 20260509063725 | -1 | 102 | 0.0 | 3.2 | 0.00 | 0.00 | 0.00 | 1 | 1012.3 |
| 20260509063529 | -1 | 102 | 0.0 | 3.2 | 0.00 | 0.00 | 0.00 | 1 | 1012.3 |
| 20260509063430 | -1 | 102 | 0.0 | 3.2 | 0.00 | 0.00 | 0.00 | 1 | 1012.3 |
| 20260509063333 | -1 | 102 | 0.0 | 3.2 | 0.00 | 0.00 | 0.00 | 1 | 1012.3 |
| 20260509063232 | -1 | 102 | 0.0 | 3.2 | 0.00 | 0.00 | 0.00 | 1 | 1012.2 |
| 20260509063157 | -1 | 102 | 0.0 | 3.2 | 0.00 | 0.00 | 0.00 | 1 | 1012.2 |
| 20260509063025 | -1 | 102 | 1.6 | 3.2 | 0.00 | 0.00 | 0.00 | 1 | 1012.3 |
| 20260509062938 | -1 | 102 | 1.6 | 3.2 | 0.00 | 0.00 | 0.00 | 1 | 1012.3 |
| 20260509062842 | -1 | 103 | 1.6 | 3.2 | 0.00 | 0.00 | 0.00 | 1 | 1012.3 |
| 20260509062723 | -1 | 103 | 1.6 | 3.2 | 0.00 | 0.00 | 0.00 | 1 | 1012.3 |
| 20260509062647 | -1 | 103 | 1.6 | 3.2 | 0.00 | 0.00 | 0.00 | 1 | 1012.3 |
| 20260509062542 | -1 | 103 | 1.6 | 1.6 | 0.00 | 0.00 | 0.00 | 1 | 1012.2 |
| 20260509062424 | -1 | 103 | 0.0 | 1.6 | 0.00 | 0.00 | 0.00 | 1 | 1012.2 |
| 20260509062347 | -1 | 103 | 0.0 | 1.6 | 0.00 | 0.00 | 0.00 | 1 | 1012.2 |
| 20260509062310 | -1 | 103 | 0.0 | 1.6 | 0.00 | 0.00 | 0.00 | 1 | 1012.2 |
| 20260509062157 | -1 | 103 | 0.0 | 1.6 | 0.00 | 0.00 | 0.00 | 1 | 1012.2 |
| 20260509062118 | -1 | 103 | 0.0 | 1.6 | 0.00 | 0.00 | 0.00 | 1 | 1012.2 |
| 20260509061923 | -1 | 103 | 0.0 | 0.0 | 0.00 | 0.00 | 0.00 | 1 | 1012.2 |
| 20260509061824 | -1 | 103 | 0.0 | 0.0 | 0.00 | 0.00 | 0.00 | 1 | 1012.2 |
| 20260509061737 | -1 | 103 | 0.0 | 0.0 | 0.00 | 0.00 | 0.00 | 1 | 1012.3 |
| 20260509061659 | -1 | 103 | 0.0 | 0.0 | 0.00 | 0.00 | 0.00 | 1 | 1012.3 |
| 20260509061623 | -1 | 103 | 0.0 | 0.0 | 0.00 | 0.00 | 0.00 | 1 | 1012.3 |
| 20260509061333 | -1 | 103 | 0.0 | 0.0 | 0.00 | 0.00 | 0.00 | 1 | 1012.2 |
| 20260509061256 | -1 | 103 | 0.0 | 0.0 | 0.00 | 0.00 | 0.00 | 1 | 1012.2 |
| 20260509061144 | -1 | 103 | 0.0 | 0.0 | 0.00 | 0.00 | 0.00 | 1 | 1012.2 |
| 20260509061105 | -1 | 103 | 0.0 | 0.0 | 0.00 | 0.00 | 0.00 | 1 | 1012.3 |
| 20260509060936 | -1 | 103 | 0.0 | 0.0 | 0.00 | 0.00 | 0.00 | 1 | 1012.3 |
| 20260509060830 | -1 | 103 | 0.0 | 0.0 | 0.00 | 0.00 | 0.00 | 1 | 1012.3 |
| 20260509060640 | -1 | 103 | 0.0 | 0.0 | 0.00 | 0.00 | 0.00 | 1 | 1012.3 |
| 20260509060534 | 0 | 103 | 0.0 | 0.0 | 0.00 | 0.00 | 0.00 | 1 | 1012.3 |
| 20260509060458 | 0 | 103 | 0.0 | 0.0 | 0.00 | 0.00 | 0.00 | 1 | 1012.3 |
| 20260509060322 | 0 | 103 | 0.0 | 0.0 | 0.00 | 0.00 | 0.00 | 1 | 1012.3 |
| 20260509060237 | 0 | 103 | 0.0 | 0.0 | 0.00 | 0.00 | 0.00 | 1 | 1012.3 |
| 20260509060111 | 0 | 103 | 0.0 | 0.0 | 0.00 | 0.00 | 0.00 | 1 | 1012.3 |
| 20260509060014 | 0 | 103 | 0.0 | 0.0 | 0.00 | 0.00 | 0.00 | 1 | 1012.3 |
| 20260509055856 | 0 | 103 | 0.0 | 0.0 | 0.00 | 0.00 | 0.00 | 1 | 1012.3 |
| 20260509055736 | 0 | 103 | 0.0 | 0.0 | 0.00 | 0.00 | 0.00 | 1 | 1012.3 |
| 20260509055639 | 0 | 103 | 0.0 | 0.0 | 0.00 | 0.00 | 0.00 | 1 | 1012.3 |
| 20260509055543 | 0 | 103 | 0.0 | 0.0 | 0.00 | 0.00 | 0.00 | 1 | 1012.3 |
| 20260509055439 | 0 | 103 | 0.0 | 0.0 | 0.00 | 0.00 | 0.00 | 1 | 1012.3 |
| 20260509055322 | 0 | 103 | 0.0 | 0.0 | 0.00 | 0.00 | 0.00 | 1 | 1012.3 |
| 20260509055227 | 0 | 103 | 0.0 | 0.0 | 0.00 | 0.00 | 0.00 | 1 | 1012.3 |
| 20260509055149 | 0 | 103 | 0.0 | 0.0 | 0.00 | 0.00 | 0.00 | 1 | 1012.3 |
| 20260509055054 | 0 | 103 | 0.0 | 0.0 | 0.00 | 0.00 | 0.00 | 1 | 1012.3 |
| 20260509055017 | 0 | 103 | 0.0 | 0.0 | 0.00 | 0.00 | 0.00 | 1 | 1012.3 |
| 20260509054919 | 0 | 103 | 0.0 | 0.0 | 0.00 | 0.00 | 0.00 | 1 | 1012.3 |
| 20260509054822 | 0 | 103 | 0.0 | 0.0 | 0.00 | 0.00 | 0.00 | 1 | 1012.3 |
| 20260509054742 | 0 | 103 | 0.0 | 0.0 | 0.00 | 0.00 | 0.00 | 1 | 1012.3 |
| 20260509054614 | 0 | 103 | 0.0 | 0.0 | 0.00 | 0.00 | 0.00 | 1 | 1012.3 |
| 20260509054507 | 0 | 103 | 0.0 | 0.0 | 0.00 | 0.00 | 0.00 | 1 | 1012.3 |
| 20260509054347 | 0 | 103 | 0.0 | 0.0 | 0.00 | 0.00 | 0.00 | 1 | 1012.4 |
| 20260509054249 | 0 | 103 | 0.0 | 0.0 | 0.00 | 0.00 | 0.00 | 1 | 1012.4 |
| 20260509054132 | 0 | 103 | 0.0 | 0.0 | 0.00 | 0.00 | 0.00 | 1 | 1012.4 |
| 20260509054059 | 0 | 103 | 0.0 | 0.0 | 0.00 | 0.00 | 0.00 | 1 | 1012.4 |
| 20260509053922 | 0 | 103 | 0.0 | 0.0 | 0.00 | 0.00 | 0.00 | 1 | 1012.4 |
| 20260509053845 | 0 | 103 | 0.0 | 0.0 | 0.00 | 0.00 | 0.00 | 1 | 1012.4 |
| 20260509053807 | 0 | 103 | 0.0 | 0.0 | 0.00 | 0.00 | 0.00 | 1 | 1012.4 |
| 20260509053711 | 0 | 103 | 0.0 | 0.0 | 0.00 | 0.00 | 0.00 | 1 | 1012.4 |
| 20260509053634 | 0 | 103 | 0.0 | 0.0 | 0.00 | 0.00 | 0.00 | 1 | 1012.3 |
| 20260509053436 | 0 | 103 | 0.0 | 0.0 | 0.00 | 0.00 | 0.00 | 1 | 1012.5 |
| 20260509053337 | 0 | 103 | 0.0 | 0.0 | 0.00 | 0.00 | 0.00 | 1 | 1012.5 |
| 20260509053243 | 0 | 103 | 0.0 | 0.0 | 0.00 | 0.00 | 0.00 | 1 | 1012.5 |
| 20260509053204 | 0 | 103 | 0.0 | 0.0 | 0.00 | 0.00 | 0.00 | 1 | 1012.5 |
| 20260509053040 | 0 | 103 | 0.0 | 0.0 | 0.00 | 0.00 | 0.00 | 1 | 1012.4 |
| 20260509052933 | 0 | 103 | 0.0 | 0.0 | 0.00 | 0.00 | 0.00 | 1 | 1012.4 |
| 20260509052742 | 0 | 103 | 0.0 | 0.0 | 0.00 | 0.00 | 0.00 | 1 | 1012.4 |
| 20260509052657 | 0 | 103 | 0.0 | 0.0 | 0.00 | 0.00 | 0.00 | 1 | 1012.4 |
| 20260509052506 | 0 | 103 | 0.0 | 0.0 | 0.00 | 0.00 | 0.00 | 1 | 1012.4 |
| 20260509052427 | 0 | 103 | 0.0 | 0.0 | 0.00 | 0.00 | 0.00 | 1 | 1012.4 |
| 20260509052231 | 0 | 103 | 0.0 | 0.0 | 0.00 | 0.00 | 0.00 | 1 | 1012.4 |
| 20260509052134 | 0 | 103 | 0.0 | 0.0 | 0.00 | 0.00 | 0.00 | 1 | 1012.4 |
| 20260509052037 | 0 | 103 | 0.0 | 0.0 | 0.00 | 0.00 | 0.00 | 1 | 1012.4 |
| 20260509051959 | 0 | 103 | 0.0 | 0.0 | 0.00 | 0.00 | 0.00 | 1 | 1012.4 |
| 20260509051904 | 0 | 103 | 0.0 | 1.6 | 0.00 | 0.00 | 0.00 | 1 | 1012.4 |
| 20260509051808 | 0 | 103 | 0.0 | 1.6 | 0.00 | 0.00 | 0.00 | 1 | 1012.4 |
| 20260509051728 | 0 | 103 | 0.0 | 1.6 | 0.00 | 0.00 | 0.00 | 1 | 1012.4 |
| 20260509051533 | 0 | 103 | 0.0 | 3.2 | 0.00 | 0.00 | 0.00 | 1 | 1012.4 |
| 20260509051435 | 0 | 103 | 0.0 | 3.2 | 0.00 | 0.00 | 0.00 | 1 | 1012.4 |
| 20260509051338 | 0 | 103 | 0.0 | 4.8 | 0.00 | 0.00 | 0.00 | 1 | 1012.3 |
| 20260509051302 | 0 | 103 | 0.0 | 4.8 | 0.00 | 0.00 | 0.00 | 1 | 1012.3 |
| 20260509051223 | 0 | 103 | 0.0 | 4.8 | 0.00 | 0.00 | 0.00 | 1 | 1012.3 |
| 20260509051026 | 0 | 103 | 0.0 | 4.8 | 0.00 | 0.00 | 0.00 | 1 | 1012.3 |
| 20260509050950 | 0 | 103 | 1.6 | 4.8 | 0.00 | 0.00 | 0.00 | 1 | 1012.3 |
| 20260509050838 | 0 | 103 | 1.6 | 4.8 | 0.00 | 0.00 | 0.00 | 1 | 1012.2 |
| 20260509050801 | 0 | 91 | 1.6 | 4.8 | 0.00 | 0.00 | 0.00 | 1 | 1012.2 |
| 20260509050623 | 0 | 92 | 1.6 | 4.8 | 0.00 | 0.00 | 0.00 | 1 | 1012.2 |
| 20260509050547 | 0 | 92 | 1.6 | 4.8 | 0.00 | 0.00 | 0.00 | 1 | 1012.2 |
| 20260509050441 | 0 | 101 | 0.0 | 0.0 | 0.00 | 0.00 | 0.00 | 1 | 1012.2 |
| 20260509050323 | 0 | 101 | 0.0 | 0.0 | 0.00 | 0.00 | 0.00 | 1 | 1012.2 |
| 20260509050245 | 0 | 101 | 0.0 | 0.0 | 0.00 | 0.00 | 0.00 | 1 | 1012.2 |
| 20260509050207 | 0 | 101 | 0.0 | 0.0 | 0.00 | 0.00 | 0.00 | 1 | 1012.2 |
| 20260509050025 | 0 | 101 | 0.0 | 0.0 | 0.00 | 0.00 | 0.00 | 1 | 1012.2 |
| 20260509045926 | 0 | 101 | 0.0 | 0.0 | 0.00 | 0.00 | 0.00 | 1 | 1012.3 |
| 20260509045830 | 0 | 101 | 0.0 | 0.0 | 0.00 | 0.00 | 0.00 | 1 | 1012.2 |
| 20260509045754 | 0 | 101 | 0.0 | 0.0 | 0.00 | 0.00 | 0.00 | 1 | 1012.2 |
| 20260509045715 | 0 | 101 | 0.0 | 0.0 | 0.00 | 0.00 | 0.00 | 1 | 1012.3 |
| 20260509045539 | 0 | 101 | 0.0 | 0.0 | 0.00 | 0.00 | 0.00 | 1 | 1012.3 |
| 20260509045443 | 0 | 101 | 0.0 | 0.0 | 0.00 | 0.00 | 0.00 | 1 | 1012.3 |
| 20260509045325 | 0 | 101 | 0.0 | 0.0 | 0.00 | 0.00 | 0.00 | 1 | 1012.3 |
| 20260509045248 | 0 | 101 | 0.0 | 0.0 | 0.00 | 0.00 | 0.00 | 1 | 1012.3 |
| 20260509045128 | 0 | 101 | 0.0 | 0.0 | 0.00 | 0.00 | 0.00 | 1 | 1012.3 |
| 20260509045022 | 0 | 101 | 0.0 | 0.0 | 0.00 | 0.00 | 0.00 | 1 | 1012.3 |
| 20260509044946 | 0 | 101 | 0.0 | 0.0 | 0.00 | 0.00 | 0.00 | 1 | 1012.3 |
| 20260509044823 | 0 | 101 | 0.0 | 0.0 | 0.00 | 0.00 | 0.00 | 1 | 1012.3 |
| 20260509044734 | 0 | 101 | 0.0 | 0.0 | 0.00 | 0.00 | 0.00 | 1 | 1012.3 |
| 20260509044659 | 0 | 101 | 0.0 | 0.0 | 0.00 | 0.00 | 0.00 | 1 | 1012.3 |
| 20260509044620 | 0 | 101 | 0.0 | 0.0 | 0.00 | 0.00 | 0.00 | 1 | 1012.3 |
| 20260509044426 | 0 | 101 | 0.0 | 0.0 | 0.00 | 0.00 | 0.00 | 1 | 1012.4 |
| 20260509044349 | 0 | 101 | 0.0 | 0.0 | 0.00 | 0.00 | 0.00 | 1 | 1012.4 |
| 20260509044224 | 0 | 101 | 0.0 | 0.0 | 0.00 | 0.00 | 0.00 | 1 | 1012.3 |
| 20260509044136 | 0 | 101 | 0.0 | 0.0 | 0.00 | 0.00 | 0.00 | 1 | 1012.3 |
| 20260509044059 | 0 | 101 | 0.0 | 0.0 | 0.00 | 0.00 | 0.00 | 1 | 1012.3 |
| 20260509044011 | 0 | 101 | 0.0 | 0.0 | 0.00 | 0.00 | 0.00 | 1 | 1012.3 |
| 20260509043916 | 0 | 101 | 0.0 | 0.0 | 0.00 | 0.00 | 0.00 | 1 | 1012.3 |
| 20260509043838 | 0 | 101 | 0.0 | 0.0 | 0.00 | 0.00 | 0.00 | 1 | 1012.3 |
| 20260509043708 | 0 | 101 | 0.0 | 0.0 | 0.00 | 0.00 | 0.00 | 1 | 1012.3 |
| 20260509043526 | 0 | 101 | 0.0 | 0.0 | 0.00 | 0.00 | 0.00 | 1 | 1012.3 |
| 20260509043430 | 0 | 101 | 0.0 | 0.0 | 0.00 | 0.00 | 0.00 | 1 | 1012.3 |
| 20260509043331 | 0 | 101 | 0.0 | 0.0 | 0.00 | 0.00 | 0.00 | 1 | 1012.3 |
| 20260509043135 | 0 | 101 | 0.0 | 0.0 | 0.00 | 0.00 | 0.00 | 1 | 1012.3 |
| 20260509043036 | 0 | 101 | 0.0 | 0.0 | 0.00 | 0.00 | 0.00 | 1 | 1012.3 |
| 20260509042943 | 0 | 101 | 0.0 | 0.0 | 0.00 | 0.00 | 0.00 | 1 | 1012.3 |
| 20260509042904 | 0 | 101 | 0.0 | 0.0 | 0.00 | 0.00 | 0.00 | 1 | 1012.2 |
| 20260509042734 | 0 | 101 | 0.0 | 1.6 | 0.00 | 0.00 | 0.00 | 1 | 1012.2 |
| 20260509042626 | 0 | 101 | 0.0 | 3.2 | 0.00 | 0.00 | 0.00 | 1 | 1012.3 |
| 20260509042436 | 0 | 101 | 0.0 | 3.2 | 0.00 | 0.00 | 0.00 | 1 | 1012.3 |
| 20260509042342 | 0 | 101 | 0.0 | 3.2 | 0.00 | 0.00 | 0.00 | 1 | 1012.3 |
| 20260509042246 | 0 | 101 | 0.0 | 3.2 | 0.00 | 0.00 | 0.00 | 1 | 1012.3 |
| 20260509042145 | 0 | 101 | 0.0 | 3.2 | 0.00 | 0.00 | 0.00 | 1 | 1012.3 |
| 20260509042016 | 0 | 101 | 0.0 | 3.2 | 0.00 | 0.00 | 0.00 | 1 | 1012.2 |
| 20260509041932 | 0 | 101 | 0.0 | 3.2 | 0.00 | 0.00 | 0.00 | 1 | 1012.2 |
| 20260509041802 | 0 | 101 | 0.0 | 3.2 | 0.00 | 0.00 | 0.00 | 1 | 1012.2 |
| 20260509041712 | 0 | 101 | 0.0 | 1.6 | 0.00 | 0.00 | 0.00 | 1 | 1012.2 |
| 20260509041554 | 0 | 101 | 0.0 | 0.0 | 0.00 | 0.00 | 0.00 | 1 | 1012.2 |
| 20260509041455 | 0 | 101 | 0.0 | 0.0 | 0.00 | 0.00 | 0.00 | 1 | 1012.2 |
| 20260509041325 | 0 | 101 | 0.0 | 0.0 | 0.00 | 0.00 | 0.00 | 1 | 1012.2 |
| 20260509041218 | 0 | 101 | 0.0 | 0.0 | 0.00 | 0.00 | 0.00 | 1 | 1012.2 |
| 20260509041038 | 0 | 101 | 0.0 | 0.0 | 0.00 | 0.00 | 0.00 | 1 | 1012.1 |
| 20260509041007 | 0 | 101 | 0.0 | 0.0 | 0.00 | 0.00 | 0.00 | 1 | 1012.1 |
| 20260509040922 | 0 | 101 | 0.0 | 0.0 | 0.00 | 0.00 | 0.00 | 1 | 1012.1 |
| 20260509040752 | 0 | 101 | 0.0 | 0.0 | 0.00 | 0.00 | 0.00 | 1 | 1012.1 |
| 20260509040624 | 0 | 101 | 0.0 | 0.0 | 0.00 | 0.00 | 0.00 | 1 | 1012.1 |
| 20260509040517 | 0 | 101 | 0.0 | 0.0 | 0.00 | 0.00 | 0.00 | 1 | 1012.1 |
| 20260509040346 | 0 | 101 | 0.0 | 0.0 | 0.00 | 0.00 | 0.00 | 1 | 1012.1 |
| 20260509040247 | 0 | 101 | 0.0 | 0.0 | 0.00 | 0.00 | 0.00 | 1 | 1012.1 |
| 20260509040130 | 0 | 101 | 0.0 | 0.0 | 0.00 | 0.00 | 0.00 | 1 | 1012.1 |
| 20260509040052 | 0 | 101 | 0.0 | 0.0 | 0.00 | 0.00 | 0.00 | 1 | 1012.1 |
| 20260509040007 | 1 | 101 | 0.0 | 0.0 | 0.00 | 0.00 | 0.00 | 1 | 1012.1 |
| 20260509035836 | 1 | 101 | 0.0 | 0.0 | 0.00 | 0.00 | 0.00 | 1 | 1012.1 |
| 20260509035736 | 1 | 101 | 0.0 | 0.0 | 0.00 | 0.00 | 0.00 | 1 | 1012.1 |
| 20260509035522 | 1 | 101 | 0.0 | 0.0 | 0.00 | 0.00 | 0.00 | 1 | 1012.1 |
| 20260509035446 | 1 | 101 | 0.0 | 0.0 | 0.00 | 0.00 | 0.00 | 1 | 1012.1 |
| 20260509035330 | 1 | 101 | 0.0 | 0.0 | 0.00 | 0.00 | 0.00 | 1 | 1012.1 |
| 20260509035252 | 1 | 101 | 0.0 | 0.0 | 0.00 | 0.00 | 0.00 | 1 | 1012.1 |
| 20260509035206 | 1 | 101 | 0.0 | 0.0 | 0.00 | 0.00 | 0.00 | 1 | 1012.1 |
| 20260509035037 | 1 | 101 | 0.0 | 0.0 | 0.00 | 0.00 | 0.00 | 1 | 1012.1 |
| 20260509034938 | 1 | 101 | 0.0 | 0.0 | 0.00 | 0.00 | 0.00 | 1 | 1012.0 |
| 20260509034807 | 1 | 101 | 0.0 | 0.0 | 0.00 | 0.00 | 0.00 | 1 | 1012.0 |
| 20260509034722 | 1 | 101 | 0.0 | 1.6 | 0.00 | 0.00 | 0.00 | 1 | 1012.0 |
| 20260509034510 | 1 | 101 | 0.0 | 3.2 | 0.00 | 0.00 | 0.00 | 1 | 1012.0 |
| 20260509034433 | 1 | 101 | 0.0 | 3.2 | 0.00 | 0.00 | 0.00 | 1 | 1012.0 |
| 20260509034321 | 1 | 101 | 0.0 | 3.2 | 0.00 | 0.00 | 0.00 | 1 | 1012.0 |
| 20260509034232 | 1 | 101 | 0.0 | 3.2 | 0.00 | 0.00 | 0.00 | 1 | 1012.0 |
| 20260509034026 | 1 | 101 | 0.0 | 3.2 | 0.00 | 0.00 | 0.00 | 1 | 1012.0 |
| 20260509033927 | 1 | 101 | 1.6 | 3.2 | 0.00 | 0.00 | 0.00 | 1 | 1012.0 |
| 20260509033831 | 1 | 101 | 1.6 | 3.2 | 0.00 | 0.00 | 0.00 | 1 | 1012.0 |
| 20260509033754 | 1 | 101 | 0.0 | 3.2 | 0.00 | 0.00 | 0.00 | 1 | 1012.0 |
| 20260509033716 | 1 | 101 | 0.0 | 0.0 | 0.00 | 0.00 | 0.00 | 1 | 1012.0 |
| 20260509033539 | 1 | 101 | 0.0 | 0.0 | 0.00 | 0.00 | 0.00 | 1 | 1012.0 |
| 20260509033444 | 1 | 101 | 0.0 | 0.0 | 0.00 | 0.00 | 0.00 | 1 | 1012.0 |
| 20260509033341 | 1 | 101 | 0.0 | 0.0 | 0.00 | 0.00 | 0.00 | 1 | 1011.9 |
| 20260509033304 | 1 | 101 | 0.0 | 0.0 | 0.00 | 0.00 | 0.00 | 1 | 1011.9 |
| 20260509033208 | 1 | 101 | 0.0 | 0.0 | 0.00 | 0.00 | 0.00 | 1 | 1012.0 |
| 20260509033129 | 1 | 101 | 0.0 | 0.0 | 0.00 | 0.00 | 0.00 | 1 | 1012.0 |
| 20260509032933 | 1 | 101 | 0.0 | 0.0 | 0.00 | 0.00 | 0.00 | 1 | 1012.0 |
| 20260509032836 | 1 | 101 | 0.0 | 0.0 | 0.00 | 0.00 | 0.00 | 1 | 1012.0 |
| 20260509032742 | 1 | 101 | 0.0 | 0.0 | 0.00 | 0.00 | 0.00 | 1 | 1012.0 |
| 20260509032700 | 1 | 101 | 0.0 | 0.0 | 0.00 | 0.00 | 0.00 | 1 | 1012.0 |
| 20260509032532 | 1 | 101 | 0.0 | 0.0 | 0.00 | 0.00 | 0.00 | 1 | 1012.0 |
| 20260509032426 | 1 | 101 | 0.0 | 0.0 | 0.00 | 0.00 | 0.00 | 1 | 1012.0 |
| 20260509032239 | 1 | 101 | 0.0 | 0.0 | 0.00 | 0.00 | 0.00 | 1 | 1012.0 |
| 20260509032156 | 1 | 101 | 0.0 | 0.0 | 0.00 | 0.00 | 0.00 | 1 | 1012.0 |
| 20260509032117 | 1 | 101 | 0.0 | 0.0 | 0.00 | 0.00 | 0.00 | 1 | 1012.0 |
| 20260509031929 | 1 | 101 | 0.0 | 0.0 | 0.00 | 0.00 | 0.00 | 1 | 1011.9 |
| 20260509031824 | 1 | 101 | 0.0 | 0.0 | 0.00 | 0.00 | 0.00 | 1 | 1011.9 |
| 20260509031747 | 1 | 101 | 0.0 | 0.0 | 0.00 | 0.00 | 0.00 | 1 | 1011.9 |
| 20260509031633 | 1 | 101 | 0.0 | 0.0 | 0.00 | 0.00 | 0.00 | 1 | 1011.9 |
| 20260509031554 | 1 | 101 | 0.0 | 0.0 | 0.00 | 0.00 | 0.00 | 1 | 1011.9 |
| 20260509031418 | 1 | 101 | 0.0 | 0.0 | 0.00 | 0.00 | 0.00 | 1 | 1011.9 |
| 20260509031342 | 1 | 101 | 0.0 | 0.0 | 0.00 | 0.00 | 0.00 | 1 | 1011.9 |
| 20260509031222 | 1 | 101 | 0.0 | 0.0 | 0.00 | 0.00 | 0.00 | 1 | 1011.8 |
| 20260509031137 | 1 | 101 | 0.0 | 0.0 | 0.00 | 0.00 | 0.00 | 1 | 1011.8 |
| 20260509031008 | 1 | 101 | 0.0 | 0.0 | 0.00 | 0.00 | 0.00 | 1 | 1011.8 |
| 20260509030931 | 1 | 101 | 0.0 | 0.0 | 0.00 | 0.00 | 0.00 | 1 | 1011.8 |
| 20260509030733 | 1 | 101 | 0.0 | 0.0 | 0.00 | 0.00 | 0.00 | 1 | 1011.7 |
| 20260509030656 | 1 | 101 | 0.0 | 0.0 | 0.00 | 0.00 | 0.00 | 1 | 1011.7 |
| 20260509030559 | 1 | 101 | 0.0 | 0.0 | 0.00 | 0.00 | 0.00 | 1 | 1011.7 |
| 20260509030501 | 1 | 101 | 0.0 | 0.0 | 0.00 | 0.00 | 0.00 | 1 | 1011.7 |
| 20260509030423 | 1 | 101 | 0.0 | 0.0 | 0.00 | 0.00 | 0.00 | 1 | 1011.7 |
| 20260509030136 | 1 | 101 | 0.0 | 0.0 | 0.00 | 0.00 | 0.00 | 1 | 1011.7 |
| 20260509030042 | 1 | 101 | 0.0 | 0.0 | 0.00 | 0.00 | 0.00 | 1 | 1011.7 |
| 20260509025945 | 1 | 101 | 0.0 | 0.0 | 0.00 | 0.00 | 0.00 | 1 | 1011.7 |
| 20260509025846 | 2 | 101 | 0.0 | 0.0 | 0.00 | 0.00 | 0.00 | 1 | 1011.7 |
| 20260509025631 | 2 | 101 | 0.0 | 0.0 | 0.00 | 0.00 | 0.00 | 1 | 1011.7 |
| 20260509025532 | 2 | 101 | 0.0 | 0.0 | 0.00 | 0.00 | 0.00 | 1 | 1011.7 |
| 20260509025427 | 2 | 101 | 0.0 | 0.0 | 0.00 | 0.00 | 0.00 | 1 | 1011.7 |
| 20260509025349 | 2 | 101 | 0.0 | 0.0 | 0.00 | 0.00 | 0.00 | 1 | 1011.7 |
| 20260509025130 | 2 | 101 | 0.0 | 0.0 | 0.00 | 0.00 | 0.00 | 1 | 1011.6 |
| 20260509025056 | 2 | 101 | 0.0 | 0.0 | 0.00 | 0.00 | 0.00 | 1 | 1011.6 |
| 20260509024939 | 2 | 101 | 0.0 | 0.0 | 0.00 | 0.00 | 0.00 | 1 | 1011.7 |
| 20260509024902 | 2 | 101 | 0.0 | 0.0 | 0.00 | 0.00 | 0.00 | 1 | 1011.7 |
| 20260509024826 | 2 | 101 | 0.0 | 0.0 | 0.00 | 0.00 | 0.00 | 1 | 1011.6 |
| 20260509024709 | 2 | 101 | 0.0 | 0.0 | 0.00 | 0.00 | 0.00 | 1 | 1011.6 |
| 20260509024631 | 2 | 101 | 0.0 | 0.0 | 0.00 | 0.00 | 0.00 | 1 | 1011.6 |
| 20260509024434 | 2 | 101 | 0.0 | 0.0 | 0.00 | 0.00 | 0.00 | 1 | 1011.7 |
| 20260509024338 | 2 | 101 | 0.0 | 0.0 | 0.00 | 0.00 | 0.00 | 1 | 1011.7 |
| 20260509024230 | 2 | 101 | 0.0 | 0.0 | 0.00 | 0.00 | 0.00 | 1 | 1011.7 |
| 20260509024158 | 2 | 101 | 0.0 | 0.0 | 0.00 | 0.00 | 0.00 | 1 | 1011.7 |
| 20260509024114 | 2 | 101 | 0.0 | 0.0 | 0.00 | 0.00 | 0.00 | 1 | 1011.6 |
| 20260509023944 | 2 | 101 | 0.0 | 0.0 | 0.00 | 0.00 | 0.00 | 1 | 1011.6 |
| 20260509023843 | 2 | 101 | 0.0 | 0.0 | 0.00 | 0.00 | 0.00 | 1 | 1011.6 |
| 20260509023726 | 2 | 101 | 0.0 | 0.0 | 0.00 | 0.00 | 0.00 | 1 | 1011.6 |
| 20260509023650 | 2 | 101 | 0.0 | 0.0 | 0.00 | 0.00 | 0.00 | 1 | 1011.6 |
| 20260509023611 | 2 | 101 | 0.0 | 0.0 | 0.00 | 0.00 | 0.00 | 1 | 1011.6 |
| 20260509023436 | 2 | 101 | 0.0 | 0.0 | 0.00 | 0.00 | 0.00 | 1 | 1011.6 |
| 20260509023357 | 2 | 101 | 0.0 | 0.0 | 0.00 | 0.00 | 0.00 | 1 | 1011.6 |
| 20260509023259 | 2 | 101 | 0.0 | 0.0 | 0.00 | 0.00 | 0.00 | 1 | 1011.6 |
| 20260509023141 | 2 | 101 | 0.0 | 0.0 | 0.00 | 0.00 | 0.00 | 1 | 1011.6 |
| 20260509023109 | 2 | 101 | 0.0 | 0.0 | 0.00 | 0.00 | 0.00 | 1 | 1011.6 |
| 20260509022951 | 2 | 101 | 0.0 | 0.0 | 0.00 | 0.00 | 0.00 | 1 | 1011.6 |
| 20260509022852 | 2 | 101 | 0.0 | 0.0 | 0.00 | 0.00 | 0.00 | 1 | 1011.6 |
| 20260509022816 | 2 | 101 | 0.0 | 0.0 | 0.00 | 0.00 | 0.00 | 1 | 1011.6 |
| 20260509022720 | 2 | 101 | 0.0 | 0.0 | 0.00 | 0.00 | 0.00 | 1 | 1011.6 |
| 20260509022641 | 2 | 101 | 0.0 | 0.0 | 0.00 | 0.00 | 0.00 | 1 | 1011.6 |
| 20260509022514 | 2 | 101 | 0.0 | 0.0 | 0.00 | 0.00 | 0.00 | 1 | 1011.6 |
| 20260509022437 | 2 | 101 | 0.0 | 0.0 | 0.00 | 0.00 | 0.00 | 1 | 1011.6 |
| 20260509022237 | 2 | 101 | 0.0 | 0.0 | 0.00 | 0.00 | 0.00 | 1 | 1011.6 |
| 20260509022027 | 2 | 101 | 0.0 | 0.0 | 0.00 | 0.00 | 0.00 | 1 | 1011.7 |
| 20260509021941 | 2 | 101 | 0.0 | 0.0 | 0.00 | 0.00 | 0.00 | 1 | 1011.6 |
| 20260509021849 | 2 | 101 | 0.0 | 0.0 | 0.00 | 0.00 | 0.00 | 1 | 1011.6 |
| 20260509021754 | 2 | 101 | 0.0 | 0.0 | 0.00 | 0.00 | 0.00 | 1 | 1011.6 |
| 20260509021654 | 2 | 101 | 0.0 | 0.0 | 0.00 | 0.00 | 0.00 | 1 | 1011.7 |
| 20260509021556 | 2 | 101 | 0.0 | 0.0 | 0.00 | 0.00 | 0.00 | 1 | 1011.7 |
| 20260509021501 | 3 | 101 | 0.0 | 0.0 | 0.00 | 0.00 | 0.00 | 1 | 1011.6 |
| 20260509021403 | 3 | 101 | 0.0 | 0.0 | 0.00 | 0.00 | 0.00 | 1 | 1011.6 |
| 20260509021225 | 3 | 101 | 0.0 | 0.0 | 0.00 | 0.00 | 0.00 | 1 | 1011.6 |
| 20260509021148 | 3 | 101 | 0.0 | 0.0 | 0.00 | 0.00 | 0.00 | 1 | 1011.6 |
| 20260509020956 | 3 | 101 | 0.0 | 0.0 | 0.00 | 0.00 | 0.00 | 1 | 1011.6 |
| 20260509020848 | 3 | 101 | 0.0 | 0.0 | 0.00 | 0.00 | 0.00 | 1 | 1011.6 |
| 20260509020719 | 3 | 101 | 0.0 | 0.0 | 0.00 | 0.00 | 0.00 | 1 | 1011.6 |
| 20260509020620 | 3 | 101 | 0.0 | 0.0 | 0.00 | 0.00 | 0.00 | 1 | 1011.6 |
| 20260509020335 | 3 | 101 | 0.0 | 0.0 | 0.00 | 0.00 | 0.00 | 1 | 1011.6 |
| 20260509020236 | 3 | 101 | 0.0 | 0.0 | 0.00 | 0.00 | 0.00 | 1 | 1011.5 |
| 20260509020140 | 3 | 101 | 0.0 | 0.0 | 0.00 | 0.00 | 0.00 | 1 | 1011.4 |
| 20260509020104 | 3 | 101 | 0.0 | 0.0 | 0.00 | 0.00 | 0.00 | 1 | 1011.4 |
| 20260509020026 | 3 | 101 | 0.0 | 0.0 | 0.00 | 0.00 | 0.00 | 1 | 1011.4 |
| 20260509015828 | 3 | 101 | 0.0 | 0.0 | 0.00 | 0.00 | 0.00 | 1 | 1011.5 |
| 20260509015750 | 3 | 101 | 0.0 | 0.0 | 0.00 | 0.00 | 0.00 | 1 | 1011.5 |
| 20260509015654 | 3 | 101 | 0.0 | 0.0 | 0.00 | 0.00 | 0.00 | 1 | 1011.4 |
| 20260509015617 | 3 | 101 | 0.0 | 0.0 | 0.00 | 0.00 | 0.00 | 1 | 1011.4 |
| 20260509015425 | 3 | 101 | 0.0 | 0.0 | 0.00 | 0.00 | 0.00 | 1 | 1011.4 |
| 20260509015328 | 3 | 101 | 0.0 | 0.0 | 0.00 | 0.00 | 0.00 | 1 | 1011.4 |
| 20260509015230 | 3 | 101 | 0.0 | 0.0 | 0.00 | 0.00 | 0.00 | 1 | 1011.4 |
| 20260509015152 | 3 | 101 | 0.0 | 0.0 | 0.00 | 0.00 | 0.00 | 1 | 1011.4 |
| 20260509014942 | 3 | 101 | 0.0 | 0.0 | 0.00 | 0.00 | 0.00 | 1 | 1011.3 |
| 20260509014838 | 3 | 101 | 0.0 | 0.0 | 0.00 | 0.00 | 0.00 | 1 | 1011.4 |
| 20260509014721 | 4 | 101 | 0.0 | 0.0 | 0.00 | 0.00 | 0.00 | 1 | 1011.4 |
| 20260509014644 | 4 | 101 | 0.0 | 0.0 | 0.00 | 0.00 | 0.00 | 1 | 1011.4 |
| 20260509014605 | 4 | 101 | 0.0 | 0.0 | 0.00 | 0.00 | 0.00 | 1 | 1011.3 |
| 20260509014526 | 4 | 101 | 0.0 | 0.0 | 0.00 | 0.00 | 0.00 | 1 | 1011.3 |
| 20260509014427 | 4 | 101 | 0.0 | 0.0 | 0.00 | 0.00 | 0.00 | 1 | 1011.3 |
| 20260509014329 | 4 | 101 | 0.0 | 0.0 | 0.00 | 0.00 | 0.00 | 1 | 1011.3 |
| 20260509014132 | 4 | 101 | 0.0 | 1.6 | 0.00 | 0.00 | 0.00 | 1 | 1011.3 |
| 20260509014054 | 4 | 101 | 0.0 | 1.6 | 0.00 | 0.00 | 0.00 | 1 | 1011.3 |
| 20260509013957 | 4 | 101 | 0.0 | 1.6 | 0.00 | 0.00 | 0.00 | 1 | 1011.3 |
| 20260509013839 | 4 | 101 | 0.0 | 1.6 | 0.00 | 0.00 | 0.00 | 1 | 1011.3 |
| 20260509013741 | 4 | 101 | 0.0 | 1.6 | 0.00 | 0.00 | 0.00 | 1 | 1011.2 |
| 20260509013644 | 4 | 101 | 0.0 | 1.6 | 0.00 | 0.00 | 0.00 | 1 | 1011.2 |
| 20260509013541 | 4 | 101 | 0.0 | 1.6 | 0.00 | 0.00 | 0.00 | 3 | 1011.2 |
| 20260509013427 | 5 | 101 | 1.6 | 1.6 | 0.00 | 0.00 | 0.00 | 3 | 1011.2 |
| 20260509013328 | 5 | 101 | 1.6 | 1.6 | 0.00 | 0.00 | 0.00 | 3 | 1011.2 |
| 20260509013252 | 5 | 101 | 1.6 | 1.6 | 0.00 | 0.00 | 0.00 | 3 | 1011.2 |
| 20260509013134 | 5 | 101 | 0.0 | 1.6 | 0.00 | 0.00 | 0.00 | 3 | 1011.3 |
| 20260509013058 | 5 | 101 | 0.0 | 1.6 | 0.00 | 0.00 | 0.00 | 3 | 1011.3 |
| 20260509013014 | 5 | 101 | 0.0 | 1.6 | 0.00 | 0.00 | 0.00 | 3 | 1011.2 |
| 20260509012843 | 5 | 101 | 0.0 | 0.0 | 0.00 | 0.00 | 0.00 | 4 | 1011.2 |
| 20260509012746 | 5 | 101 | 0.0 | 0.0 | 0.00 | 0.00 | 0.00 | 4 | 1011.2 |
| 20260509012627 | 5 | 101 | 0.0 | 0.0 | 0.00 | 0.00 | 0.00 | 4 | 1011.1 |
| 20260509012531 | 5 | 101 | 0.0 | 0.0 | 0.00 | 0.00 | 0.00 | 6 | 1011.1 |
| 20260509012454 | 5 | 101 | 0.0 | 0.0 | 0.00 | 0.00 | 0.00 | 6 | 1011.1 |
| 20260509012416 | 5 | 101 | 0.0 | 0.0 | 0.00 | 0.00 | 0.00 | 6 | 1011.0 |
| 20260509012240 | 5 | 101 | 0.0 | 0.0 | 0.00 | 0.00 | 0.00 | 5 | 1011.0 |
| 20260509012142 | 5 | 101 | 0.0 | 0.0 | 0.00 | 0.00 | 0.00 | 5 | 1011.0 |
| 20260509012047 | 5 | 101 | 0.0 | 0.0 | 0.00 | 0.00 | 0.00 | 5 | 1011.0 |
| 20260509011929 | 5 | 101 | 0.0 | 0.0 | 0.00 | 0.00 | 0.00 | 6 | 1010.9 |
| 20260509011832 | 5 | 101 | 0.0 | 0.0 | 0.00 | 0.00 | 0.00 | 6 | 1011.0 |
| 20260509011736 | 5 | 101 | 0.0 | 0.0 | 0.00 | 0.00 | 0.00 | 6 | 1010.9 |
| 20260509011700 | 5 | 101 | 0.0 | 0.0 | 0.00 | 0.00 | 0.00 | 6 | 1010.9 |
| 20260509011524 | 5 | 101 | 0.0 | 0.0 | 0.00 | 0.00 | 0.00 | 6 | 1010.9 |
| 20260509011439 | 5 | 101 | 0.0 | 0.0 | 0.00 | 0.00 | 0.00 | 6 | 1010.9 |
| 20260509011310 | 5 | 101 | 0.0 | 0.0 | 0.00 | 0.00 | 0.00 | 7 | 1010.9 |
| 20260509011220 | 6 | 101 | 0.0 | 0.0 | 0.00 | 0.00 | 0.00 | 8 | 1010.9 |
| 20260509011023 | 6 | 101 | 0.0 | 0.0 | 0.00 | 0.00 | 0.00 | 11 | 1010.8 |
| 20260509010947 | 6 | 101 | 0.0 | 0.0 | 0.00 | 0.00 | 0.00 | 13 | 1010.8 |
| 20260509010830 | 6 | 101 | 0.0 | 0.0 | 0.00 | 0.00 | 0.00 | 13 | 1010.8 |
| 20260509010755 | 6 | 101 | 0.0 | 0.0 | 0.00 | 0.00 | 0.00 | 15 | 1010.8 |
| 20260509010536 | 6 | 101 | 0.0 | 0.0 | 0.00 | 0.00 | 0.00 | 15 | 1010.8 |
| 20260509010459 | 6 | 101 | 0.0 | 0.0 | 0.00 | 0.00 | 0.00 | 16 | 1010.8 |
| 20260509010342 | 6 | 101 | 0.0 | 0.0 | 0.00 | 0.00 | 0.00 | 16 | 1010.7 |
| 20260509010305 | 6 | 101 | 0.0 | 0.0 | 0.00 | 0.00 | 0.00 | 16 | 1010.7 |
| 20260509010221 | 6 | 101 | 0.0 | 0.0 | 0.00 | 0.00 | 0.00 | 16 | 1010.7 |
| 20260509010030 | 6 | 101 | 0.0 | 0.0 | 0.00 | 0.00 | 0.00 | 16 | 1010.7 |
| 20260509005944 | 6 | 101 | 0.0 | 0.0 | 0.00 | 0.00 | 0.00 | 16 | 1010.7 |
| 20260509005846 | 6 | 101 | 0.0 | 0.0 | 0.00 | 0.00 | 0.00 | 16 | 1010.7 |
| 20260509005809 | 6 | 101 | 0.0 | 0.0 | 0.00 | 0.00 | 0.00 | 17 | 1010.7 |
| 20260509005642 | 6 | 101 | 0.0 | 0.0 | 0.00 | 0.00 | 0.00 | 18 | 1010.7 |
| 20260509005600 | 6 | 101 | 0.0 | 0.0 | 0.00 | 0.00 | 0.00 | 19 | 1010.7 |
| 20260509005459 | 6 | 101 | 0.0 | 0.0 | 0.00 | 0.00 | 0.00 | 19 | 1010.7 |
| 20260509005359 | 6 | 101 | 0.0 | 0.0 | 0.00 | 0.00 | 0.00 | 22 | 1010.7 |
| 20260509005318 | 6 | 101 | 0.0 | 0.0 | 0.00 | 0.00 | 0.00 | 23 | 1010.6 |
| 20260509005125 | 6 | 101 | 0.0 | 0.0 | 0.00 | 0.00 | 0.00 | 23 | 1010.6 |
| 20260509005038 | 6 | 101 | 0.0 | 0.0 | 0.00 | 0.00 | 0.00 | 23 | 1010.6 |
| 20260509004904 | 6 | 101 | 0.0 | 0.0 | 0.00 | 0.00 | 0.00 | 23 | 1010.6 |
| 20260509004802 | 6 | 101 | 0.0 | 0.0 | 0.00 | 0.00 | 0.00 | 22 | 1010.6 |
| 20260509004713 | 6 | 101 | 0.0 | 0.0 | 0.00 | 0.00 | 0.00 | 22 | 1010.6 |
| 20260509004541 | 6 | 101 | 0.0 | 0.0 | 0.00 | 0.00 | 0.00 | 22 | 1010.5 |
| 20260509004439 | 6 | 101 | 0.0 | 0.0 | 0.00 | 0.00 | 0.00 | 22 | 1010.5 |
| 20260509004224 | 6 | 101 | 0.0 | 0.0 | 0.00 | 0.00 | 0.00 | 25 | 1010.5 |
| 20260509004136 | 6 | 101 | 0.0 | 0.0 | 0.00 | 0.00 | 0.00 | 25 | 1010.5 |
| 20260509004039 | 6 | 101 | 0.0 | 0.0 | 0.00 | 0.00 | 0.00 | 25 | 1010.4 |
| 20260509004004 | 6 | 101 | 0.0 | 0.0 | 0.00 | 0.00 | 0.00 | 26 | 1010.4 |
| 20260509003925 | 6 | 101 | 0.0 | 0.0 | 0.00 | 0.00 | 0.00 | 27 | 1010.4 |
| 20260509003727 | 6 | 101 | 0.0 | 0.0 | 0.00 | 0.00 | 0.00 | 28 | 1010.4 |
| 20260509003649 | 6 | 101 | 0.0 | 0.0 | 0.00 | 0.00 | 0.00 | 29 | 1010.4 |
| 20260509003554 | 6 | 101 | 0.0 | 0.0 | 0.00 | 0.00 | 0.00 | 29 | 1010.4 |
| 20260509003454 | 6 | 101 | 0.0 | 0.0 | 0.00 | 0.00 | 0.00 | 29 | 1010.4 |
| 20260509003355 | 7 | 101 | 0.0 | 0.0 | 0.00 | 0.00 | 0.00 | 29 | 1010.4 |
| 20260509003223 | 7 | 101 | 0.0 | 0.0 | 0.00 | 0.00 | 0.00 | 28 | 1010.4 |
| 20260509003139 | 7 | 101 | 0.0 | 0.0 | 0.00 | 0.00 | 0.00 | 27 | 1010.4 |
| 20260509003010 | 7 | 101 | 0.0 | 0.0 | 0.00 | 0.00 | 0.00 | 25 | 1010.3 |
| 20260509002911 | 7 | 101 | 0.0 | 0.0 | 0.00 | 0.00 | 0.00 | 26 | 1010.3 |
| 20260509002815 | 7 | 101 | 0.0 | 0.0 | 0.00 | 0.00 | 0.00 | 27 | 1010.3 |
| 20260509002715 | 7 | 101 | 0.0 | 0.0 | 0.00 | 0.00 | 0.00 | 27 | 1010.3 |
| 20260509002526 | 7 | 101 | 0.0 | 0.0 | 0.00 | 0.00 | 0.00 | 29 | 1010.2 |
| 20260509002440 | 7 | 101 | 0.0 | 0.0 | 0.00 | 0.00 | 0.00 | 29 | 1010.3 |
| 20260509002311 | 7 | 101 | 0.0 | 0.0 | 0.00 | 0.00 | 0.00 | 30 | 1010.3 |
| 20260509002211 | 7 | 101 | 0.0 | 0.0 | 0.00 | 0.00 | 0.00 | 30 | 1010.3 |
| 20260509002037 | 7 | 101 | 0.0 | 0.0 | 0.00 | 0.00 | 0.00 | 30 | 1010.2 |
| 20260509002001 | 7 | 101 | 0.0 | 0.0 | 0.00 | 0.00 | 0.00 | 30 | 1010.2 |
| 20260509001914 | 7 | 101 | 0.0 | 0.0 | 0.00 | 0.00 | 0.00 | 30 | 1010.2 |
| 20260509001724 | 7 | 101 | 0.0 | 0.0 | 0.00 | 0.00 | 0.00 | 31 | 1010.2 |
| 20260509001637 | 7 | 101 | 0.0 | 0.0 | 0.00 | 0.00 | 0.00 | 32 | 1010.1 |
| 20260509001509 | 7 | 101 | 0.0 | 0.0 | 0.00 | 0.00 | 0.00 | 34 | 1010.2 |
| 20260509001430 | 7 | 101 | 0.0 | 0.0 | 0.00 | 0.00 | 0.00 | 35 | 1010.2 |
| 20260509001231 | 7 | 101 | 0.0 | 0.0 | 0.00 | 0.00 | 0.00 | 35 | 1010.1 |
| 20260509001155 | 7 | 101 | 0.0 | 0.0 | 0.00 | 0.00 | 0.00 | 35 | 1010.1 |
| 20260509001058 | 7 | 101 | 0.0 | 0.0 | 0.00 | 0.00 | 0.00 | 34 | 1010.2 |
| 20260509000940 | 7 | 101 | 0.0 | 0.0 | 0.00 | 0.00 | 0.00 | 33 | 1010.1 |
| 20260509000823 | 7 | 101 | 0.0 | 0.0 | 0.00 | 0.00 | 0.00 | 33 | 1010.2 |
| 20260509000746 | 7 | 101 | 0.0 | 0.0 | 0.00 | 0.00 | 0.00 | 32 | 1010.1 |
| 20260509000528 | 8 | 101 | 0.0 | 0.0 | 0.00 | 0.00 | 0.00 | 31 | 1010.2 |
| 20260509000432 | 8 | 101 | 0.0 | 0.0 | 0.00 | 0.00 | 0.00 | 30 | 1010.2 |
| 20260509000334 | 8 | 101 | 0.0 | 0.0 | 0.00 | 0.00 | 0.00 | 31 | 1010.1 |
| 20260509000256 | 8 | 101 | 0.0 | 0.0 | 0.00 | 0.00 | 0.00 | 31 | 1010.1 |
| 20260509000219 | 8 | 101 | 0.0 | 0.0 | 0.00 | 0.00 | 0.00 | 31 | 1010.1 |
| 20260509000120 | 8 | 101 | 0.0 | 0.0 | 0.00 | 0.00 | 0.00 | 31 | 1010.2 |
| 20260509000044 | 8 | 101 | 0.0 | 0.0 | 0.00 | 0.00 | 0.00 | 32 | 1010.2 |
| 20260508235915 | 8 | 101 | 0.0 | 0.0 | 0.00 | 0.00 | 0.00 | 35 | 1010.1 |
| 20260508235831 | 8 | 101 | 0.0 | 1.6 | 0.00 | 0.00 | 0.00 | 35 | 1010.0 |
| 20260508235700 | 8 | 101 | 0.0 | 1.6 | 0.00 | 0.00 | 0.00 | 36 | 1010.1 |
| 20260508235602 | 8 | 101 | 0.0 | 1.6 | 0.00 | 0.00 | 0.00 | 37 | 1010.1 |
| 20260508235412 | 8 | 101 | 0.0 | 1.6 | 0.00 | 0.00 | 0.00 | 37 | 1010.0 |
| 20260508235327 | 8 | 101 | 0.0 | 1.6 | 0.00 | 0.00 | 0.00 | 37 | 1010.0 |
| 20260508235138 | 8 | 102 | 0.0 | 1.6 | 0.00 | 0.00 | 0.00 | 38 | 1010.1 |
| 20260508235032 | 8 | 102 | 0.0 | 1.6 | 0.00 | 0.00 | 0.00 | 38 | 1010.1 |
| 20260508234957 | 8 | 102 | 0.0 | 0.0 | 0.00 | 0.00 | 0.00 | 38 | 1010.1 |
| 20260508234824 | 8 | 102 | 0.0 | 0.0 | 0.00 | 0.00 | 0.00 | 38 | 1010.1 |
| 20260508234739 | 8 | 102 | 0.0 | 0.0 | 0.00 | 0.00 | 0.00 | 36 | 1010.0 |
| 20260508234609 | 8 | 102 | 0.0 | 1.6 | 0.00 | 0.00 | 0.00 | 33 | 1010.0 |
| 20260508234531 | 8 | 102 | 0.0 | 1.6 | 0.00 | 0.00 | 0.00 | 31 | 1010.0 |
| 20260508234335 | 9 | 285 | 0.0 | 1.6 | 0.00 | 0.00 | 0.00 | 31 | 1010.0 |
| 20260508234258 | 9 | 285 | 0.0 | 1.6 | 0.00 | 0.00 | 0.00 | 32 | 1010.0 |
| 20260508234141 | 9 | 284 | 0.0 | 1.6 | 0.00 | 0.00 | 0.00 | 34 | 1010.0 |
| 20260508234104 | 9 | 284 | 0.0 | 1.6 | 0.00 | 0.00 | 0.00 | 35 | 1010.0 |
| 20260508234019 | 9 | 284 | 0.0 | 1.6 | 0.00 | 0.00 | 0.00 | 35 | 1010.0 |
| 20260508233834 | 9 | 283 | 0.0 | 1.6 | 0.00 | 0.00 | 0.00 | 36 | 1010.0 |
| 20260508233747 | 9 | 283 | 0.0 | 1.6 | 0.00 | 0.00 | 0.00 | 36 | 1010.0 |
| 20260508233616 | 9 | 90 | 0.0 | 0.0 | 0.00 | 0.00 | 0.00 | 38 | 1009.9 |
| 20260508233539 | 9 | 90 | 0.0 | 0.0 | 0.00 | 0.00 | 0.00 | 38 | 1009.9 |
| 20260508233408 | 9 | 92 | 0.0 | 0.0 | 0.00 | 0.00 | 0.00 | 39 | 1009.9 |
| 20260508233244 | 9 | 92 | 0.0 | 0.0 | 0.00 | 0.00 | 0.00 | 44 | 1009.9 |
| 20260508233204 | 9 | 92 | 0.0 | 0.0 | 0.00 | 0.00 | 0.00 | 44 | 1009.9 |
| 20260508233108 | 9 | 92 | 0.0 | 0.0 | 0.00 | 0.00 | 0.00 | 46 | 1009.9 |
| 20260508233030 | 10 | 92 | 0.0 | 0.0 | 0.00 | 0.00 | 0.00 | 47 | 1009.9 |
| 20260508232835 | 10 | 129 | 0.0 | 0.0 | 0.00 | 0.00 | 0.00 | 49 | 1009.8 |
| 20260508232742 | 10 | 129 | 0.0 | 0.0 | 0.00 | 0.00 | 0.00 | 49 | 1009.8 |
| 20260508232659 | 10 | 135 | 0.0 | 0.0 | 0.00 | 0.00 | 0.00 | 50 | 1009.8 |
| 20260508232558 | 10 | 135 | 0.0 | 0.0 | 0.00 | 0.00 | 0.00 | 50 | 1009.8 |
| 20260508232430 | 10 | 135 | 0.0 | 1.6 | 0.00 | 0.00 | 0.00 | 50 | 1009.8 |
| 20260508232324 | 10 | 135 | 0.0 | 1.6 | 0.00 | 0.00 | 0.00 | 51 | 1009.8 |
| 20260508232153 | 10 | 135 | 0.0 | 1.6 | 0.00 | 0.00 | 0.00 | 51 | 1009.8 |
| 20260508232035 | 10 | 135 | 0.0 | 1.6 | 0.00 | 0.00 | 0.00 | 51 | 1009.8 |
| 20260508231938 | 10 | 135 | 0.0 | 1.6 | 0.00 | 0.00 | 0.00 | 51 | 1009.8 |
| 20260508231901 | 10 | 135 | 0.0 | 1.6 | 0.00 | 0.00 | 0.00 | 51 | 1009.8 |
| 20260508231723 | 10 | 135 | 0.0 | 1.6 | 0.00 | 0.00 | 0.00 | 51 | 1009.8 |
| 20260508231646 | 10 | 135 | 0.0 | 1.6 | 0.00 | 0.00 | 0.00 | 51 | 1009.8 |
| 20260508231613 | 10 | 135 | 0.0 | 1.6 | 0.00 | 0.00 | 0.00 | 51 | 1009.8 |
| 20260508231519 | 10 | 135 | 0.0 | 1.6 | 0.00 | 0.00 | 0.00 | 51 | 1009.8 |
| 20260508231440 | 10 | 348 | 0.0 | 1.6 | 0.00 | 0.00 | 0.00 | 51 | 1009.8 |
| 20260508231310 | 10 | 348 | 0.0 | 1.6 | 0.00 | 0.00 | 0.00 | 51 | 1009.8 |
| 20260508231226 | 10 | 348 | 0.0 | 1.6 | 0.00 | 0.00 | 0.00 | 51 | 1009.8 |
| 20260508231035 | 10 | 348 | 0.0 | 1.6 | 0.00 | 0.00 | 0.00 | 50 | 1009.8 |
| 20260508231000 | 10 | 348 | 0.0 | 1.6 | 0.00 | 0.00 | 0.00 | 50 | 1009.8 |
| 20260508230915 | 10 | 111 | 0.0 | 1.6 | 0.00 | 0.00 | 0.00 | 50 | 1009.8 |
| 20260508230744 | 10 | 74 | 0.0 | 0.0 | 0.00 | 0.00 | 0.00 | 50 | 1009.8 |
| 20260508230702 | 10 | 74 | 0.0 | 0.0 | 0.00 | 0.00 | 0.00 | 51 | 1009.8 |
| 20260508230617 | 10 | 74 | 0.0 | 0.0 | 0.00 | 0.00 | 0.00 | 51 | 1009.8 |
| 20260508230432 | 10 | 18 | 0.0 | 0.0 | 0.00 | 0.00 | 0.00 | 52 | 1009.8 |
| 20260508230327 | 10 | 30 | 0.0 | 0.0 | 0.00 | 0.00 | 0.00 | 52 | 1009.8 |
| 20260508230251 | 10 | 30 | 0.0 | 0.0 | 0.00 | 0.00 | 0.00 | 51 | 1009.8 |
| 20260508230206 | 10 | 30 | 0.0 | 0.0 | 0.00 | 0.00 | 0.00 | 51 | 1009.8 |
| 20260508230129 | 10 | 30 | 0.0 | 0.0 | 0.00 | 0.00 | 0.00 | 51 | 1009.7 |
| 20260508225931 | 10 | 30 | 0.0 | 0.0 | 0.00 | 0.00 | 0.00 | 53 | 1009.8 |
| 20260508225855 | 10 | 30 | 0.0 | 0.0 | 0.00 | 0.00 | 0.00 | 53 | 1009.8 |
| 20260508225817 | 10 | 30 | 0.0 | 0.0 | 0.00 | 0.00 | 0.00 | 52 | 1009.8 |
| 20260508225649 | 10 | 30 | 0.0 | 0.0 | 0.00 | 0.00 | 0.00 | 52 | 1009.7 |
| 20260508225542 | 10 | 30 | 0.0 | 0.0 | 0.00 | 0.00 | 0.00 | 52 | 1009.7 |
| 20260508225412 | 10 | 30 | 0.0 | 0.0 | 0.00 | 0.00 | 0.00 | 49 | 1009.7 |
| 20260508225318 | 10 | 30 | 0.0 | 1.6 | 0.00 | 0.00 | 0.00 | 50 | 1009.7 |
| 20260508225140 | 10 | 30 | 0.0 | 1.6 | 0.00 | 0.00 | 0.00 | 46 | 1009.7 |
| 20260508225044 | 10 | 30 | 0.0 | 1.6 | 0.00 | 0.00 | 0.00 | 48 | 1009.7 |
| 20260508224927 | 10 | 30 | 0.0 | 1.6 | 0.00 | 0.00 | 0.00 | 50 | 1009.7 |
| 20260508224849 | 10 | 30 | 0.0 | 1.6 | 0.00 | 0.00 | 0.00 | 51 | 1009.7 |
| 20260508224712 | 10 | 30 | 0.0 | 1.6 | 0.00 | 0.00 | 0.00 | 49 | 1009.7 |
| 20260508224634 | 10 | 30 | 0.0 | 1.6 | 0.00 | 0.00 | 0.00 | 49 | 1009.7 |
| 20260508224515 | 10 | 30 | 0.0 | 1.6 | 0.00 | 0.00 | 0.00 | 48 | 1009.7 |
| 20260508224431 | 10 | 30 | 0.0 | 1.6 | 0.00 | 0.00 | 0.00 | 48 | 1009.7 |
| 20260508224226 | 10 | 26 | 0.0 | 1.6 | 0.00 | 0.00 | 0.00 | 48 | 1009.7 |
| 20260508224140 | 10 | 26 | 0.0 | 1.6 | 0.00 | 0.00 | 0.00 | 47 | 1009.7 |
| 20260508224044 | 10 | 26 | 0.0 | 1.6 | 0.00 | 0.00 | 0.00 | 47 | 1009.7 |
| 20260508223946 | 10 | 26 | 0.0 | 1.6 | 0.00 | 0.00 | 0.00 | 47 | 1009.6 |
| 20260508223848 | 10 | 26 | 0.0 | 1.6 | 0.00 | 0.00 | 0.00 | 45 | 1009.6 |
| 20260508223811 | 10 | 26 | 0.0 | 1.6 | 0.00 | 0.00 | 0.00 | 45 | 1009.6 |
| 20260508223656 | 10 | 26 | 0.0 | 1.6 | 0.00 | 0.00 | 0.00 | 44 | 1009.6 |
| 20260508223536 | 10 | 10 | 0.0 | 1.6 | 0.00 | 0.00 | 0.00 | 44 | 1009.6 |
| 20260508223419 | 10 | 23 | 0.0 | 1.6 | 0.00 | 0.00 | 0.00 | 41 | 1009.6 |
| 20260508223339 | 10 | 23 | 0.0 | 1.6 | 0.00 | 0.00 | 0.00 | 41 | 1009.6 |
| 20260508223200 | 10 | 23 | 0.0 | 1.6 | 0.00 | 0.00 | 0.00 | 41 | 1009.6 |
| 20260508223038 | 10 | 23 | 0.0 | 1.6 | 0.00 | 0.00 | 0.00 | 42 | 1009.7 |
| 20260508222921 | 10 | 47 | 0.0 | 1.6 | 0.00 | 0.00 | 0.00 | 42 | 1009.7 |
| 20260508222844 | 10 | 47 | 0.0 | 1.6 | 0.00 | 0.00 | 0.00 | 44 | 1009.7 |
| 20260508222807 | 10 | 47 | 0.0 | 3.2 | 0.00 | 0.00 | 0.00 | 46 | 1009.7 |
| 20260508222641 | 10 | 47 | 0.0 | 3.2 | 0.00 | 0.00 | 0.00 | 44 | 1009.7 |
| 20260508222608 | 10 | 47 | 0.0 | 3.2 | 0.00 | 0.00 | 0.00 | 43 | 1009.7 |
| 20260508222511 | 10 | 27 | 0.0 | 3.2 | 0.00 | 0.00 | 0.00 | 44 | 1009.7 |
| 20260508222333 | 10 | 27 | 0.0 | 3.2 | 0.00 | 0.00 | 0.00 | 43 | 1009.7 |
| 20260508222257 | 10 | 27 | 0.0 | 3.2 | 0.00 | 0.00 | 0.00 | 43 | 1009.7 |
| 20260508222215 | 10 | 27 | 0.0 | 3.2 | 0.00 | 0.00 | 0.00 | 42 | 1009.7 |
| 20260508222027 | 10 | 28 | 1.6 | 3.2 | 0.00 | 0.00 | 0.00 | 42 | 1009.7 |
| 20260508221943 | 10 | 28 | 1.6 | 3.2 | 0.00 | 0.00 | 0.00 | 42 | 1009.7 |
| 20260508221813 | 10 | 30 | 1.6 | 3.2 | 0.00 | 0.00 | 0.00 | 42 | 1009.7 |
| 20260508221734 | 10 | 32 | 1.6 | 3.2 | 0.00 | 0.00 | 0.00 | 42 | 1009.7 |
| 20260508221536 | 10 | 34 | 0.0 | 1.6 | 0.00 | 0.00 | 0.00 | 42 | 1009.7 |
| 20260508221439 | 10 | 34 | 0.0 | 1.6 | 0.00 | 0.00 | 0.00 | 43 | 1009.7 |
| 20260508221325 | 10 | 34 | 0.0 | 1.6 | 0.00 | 0.00 | 0.00 | 41 | 1009.8 |
| 20260508221245 | 10 | 34 | 0.0 | 1.6 | 0.00 | 0.00 | 0.00 | 41 | 1009.8 |
| 20260508221117 | 10 | 25 | 0.0 | 1.6 | 0.00 | 0.00 | 0.00 | 42 | 1009.7 |
| 20260508221036 | 10 | 25 | 0.0 | 1.6 | 0.00 | 0.00 | 0.00 | 45 | 1009.7 |
| 20260508220907 | 10 | 25 | 0.0 | 1.6 | 0.00 | 0.00 | 0.00 | 46 | 1009.7 |
| 20260508220828 | 10 | 32 | 0.0 | 1.6 | 0.00 | 0.00 | 0.00 | 44 | 1009.7 |
| 20260508220631 | 10 | 36 | 0.0 | 3.2 | 0.00 | 0.00 | 0.00 | 43 | 1009.7 |
| 20260508220553 | 10 | 36 | 0.0 | 4.8 | 0.00 | 0.00 | 0.00 | 43 | 1009.7 |
| 20260508220438 | 10 | 36 | 0.0 | 8.0 | 0.00 | 0.00 | 0.00 | 42 | 1009.7 |
| 20260508220358 | 10 | 36 | 0.0 | 8.0 | 0.00 | 0.00 | 0.00 | 41 | 1009.7 |
| 20260508220243 | 10 | 36 | 0.0 | 8.0 | 0.00 | 0.00 | 0.00 | 41 | 1009.7 |
| 20260508220204 | 10 | 36 | 0.0 | 8.0 | 0.00 | 0.00 | 0.00 | 42 | 1009.6 |
| 20260508220035 | 10 | 36 | 0.0 | 8.0 | 0.00 | 0.00 | 0.00 | 44 | 1009.7 |
| 20260508215928 | 10 | 36 | 1.6 | 9.7 | 0.00 | 0.00 | 0.00 | 42 | 1009.6 |
| 20260508215751 | 10 | 360 | 4.8 | 9.7 | 0.00 | 0.00 | 0.00 | 41 | 1009.6 |
| 20260508215632 | 11 | 346 | 4.8 | 9.7 | 0.00 | 0.00 | 0.00 | 42 | 1009.6 |
| 20260508215535 | 11 | 342 | 4.8 | 9.7 | 0.00 | 0.00 | 0.00 | 42 | 1009.6 |
| 20260508215459 | 11 | 327 | 3.2 | 9.7 | 0.00 | 0.00 | 0.00 | 43 | 1009.6 |
| 20260508215420 | 11 | 329 | 3.2 | 9.7 | 0.00 | 0.00 | 0.00 | 43 | 1009.6 |
| 20260508215325 | 11 | 28 | 3.2 | 9.7 | 0.00 | 0.00 | 0.00 | 42 | 1009.6 |
| 20260508215225 | 11 | 338 | 4.8 | 9.7 | 0.00 | 0.00 | 0.00 | 42 | 1009.6 |
| 20260508215030 | 11 | 341 | 8.0 | 9.7 | 0.00 | 0.00 | 0.00 | 41 | 1009.6 |
| 20260508214932 | 11 | 355 | 6.4 | 9.7 | 0.00 | 0.00 | 0.00 | 43 | 1009.6 |
| 20260508214835 | 11 | 348 | 4.8 | 8.0 | 0.00 | 0.00 | 0.00 | 44 | 1009.6 |
| 20260508214801 | 11 | 350 | 3.2 | 8.0 | 0.00 | 0.00 | 0.00 | 44 | 1009.6 |
| 20260508214724 | 11 | 350 | 3.2 | 8.0 | 0.00 | 0.00 | 0.00 | 43 | 1009.6 |
| 20260508214523 | 11 | 355 | 1.6 | 8.0 | 0.00 | 0.00 | 0.00 | 42 | 1009.6 |
| 20260508214447 | 11 | 341 | 3.2 | 8.0 | 0.00 | 0.00 | 0.00 | 43 | 1009.6 |
| 20260508214332 | 11 | 310 | 1.6 | 8.0 | 0.00 | 0.00 | 0.00 | 42 | 1009.5 |
| 20260508214252 | 11 | 331 | 1.6 | 8.0 | 0.00 | 0.00 | 0.00 | 44 | 1009.5 |
| 20260508214102 | 11 | 321 | 3.2 | 8.0 | 0.00 | 0.00 | 0.00 | 41 | 1009.6 |
| 20260508214017 | 11 | 325 | 3.2 | 8.0 | 0.00 | 0.00 | 0.00 | 41 | 1009.5 |
| 20260508213826 | 11 | 336 | 3.2 | 8.0 | 0.00 | 0.00 | 0.00 | 43 | 1009.6 |
| 20260508213742 | 11 | 345 | 3.2 | 8.0 | 0.00 | 0.00 | 0.00 | 43 | 1009.6 |
| 20260508213617 | 11 | 311 | 4.8 | 8.0 | 0.00 | 0.00 | 0.00 | 40 | 1009.6 |
| 20260508213539 | 11 | 311 | 4.8 | 8.0 | 0.00 | 0.00 | 0.00 | 41 | 1009.6 |
| 20260508213341 | 11 | 330 | 4.8 | 8.0 | 0.00 | 0.00 | 0.00 | 41 | 1009.6 |
| 20260508213304 | 11 | 53 | 4.8 | 8.0 | 0.00 | 0.00 | 0.00 | 41 | 1009.6 |
| 20260508213209 | 11 | 17 | 4.8 | 8.0 | 0.00 | 0.00 | 0.00 | 41 | 1009.5 |
| 20260508213131 | 11 | 16 | 4.8 | 8.0 | 0.00 | 0.00 | 0.00 | 40 | 1009.6 |
| 20260508212935 | 11 | 321 | 3.2 | 8.0 | 0.00 | 0.00 | 0.00 | 42 | 1009.6 |
| 20260508212837 | 11 | 296 | 3.2 | 8.0 | 0.00 | 0.00 | 0.00 | 40 | 1009.5 |
| 20260508212722 | 11 | 225 | 4.8 | 8.0 | 0.00 | 0.00 | 0.00 | 42 | 1009.6 |
| 20260508212649 | 11 | 240 | 4.8 | 8.0 | 0.00 | 0.00 | 0.00 | 39 | 1009.6 |
| 20260508212521 | 11 | 294 | 3.2 | 8.0 | 0.00 | 0.00 | 0.00 | 40 | 1009.5 |
| 20260508212436 | 11 | 230 | 3.2 | 8.0 | 0.00 | 0.00 | 0.00 | 40 | 1009.6 |
| 20260508212307 | 11 | 279 | 1.6 | 6.4 | 0.00 | 0.00 | 0.00 | 40 | 1009.5 |
| 20260508212229 | 11 | 284 | 3.2 | 6.4 | 0.00 | 0.00 | 0.00 | 39 | 1009.5 |
| 20260508212031 | 11 | 271 | 3.2 | 6.4 | 0.00 | 0.00 | 0.00 | 40 | 1009.5 |
| 20260508211954 | 11 | 276 | 1.6 | 6.4 | 0.00 | 0.00 | 0.00 | 43 | 1009.5 |
| 20260508211859 | 11 | 287 | 3.2 | 6.4 | 0.00 | 0.00 | 0.00 | 41 | 1009.5 |
| 20260508211822 | 11 | 298 | 3.2 | 6.4 | 0.00 | 0.00 | 0.00 | 40 | 1009.4 |
| 20260508211652 | 11 | 298 | 3.2 | 6.4 | 0.00 | 0.00 | 0.00 | 42 | 1009.4 |
| 20260508211606 | 11 | 322 | 3.2 | 6.4 | 0.00 | 0.00 | 0.00 | 40 | 1009.4 |
| 20260508211449 | 11 | 338 | 4.8 | 6.4 | 0.00 | 0.00 | 0.00 | 39 | 1009.4 |
| 20260508211353 | 11 | 355 | 3.2 | 6.4 | 0.00 | 0.00 | 0.00 | 42 | 1009.4 |
| 20260508211255 | 11 | 13 | 3.2 | 6.4 | 0.00 | 0.00 | 0.00 | 42 | 1009.4 |
| 20260508211138 | 11 | 17 | 1.6 | 8.0 | 0.00 | 0.00 | 0.00 | 43 | 1009.4 |
| 20260508211102 | 11 | 29 | 1.6 | 8.0 | 0.00 | 0.00 | 0.00 | 43 | 1009.4 |
| 20260508211017 | 11 | 45 | 1.6 | 9.7 | 0.00 | 0.00 | 0.00 | 43 | 1009.4 |
| 20260508210828 | 10 | 15 | 1.6 | 9.7 | 0.00 | 0.00 | 0.00 | 43 | 1009.4 |
| 20260508210721 | 10 | 24 | 1.6 | 9.7 | 0.00 | 0.00 | 0.00 | 41 | 1009.4 |
| 20260508210655 | 10 | 24 | 1.6 | 9.7 | 0.00 | 0.00 | 0.00 | 41 | 1009.4 |
| 20260508210600 | 10 | 5 | 3.2 | 9.7 | 0.00 | 0.00 | 0.00 | 40 | 1009.4 |
| 20260508210520 | 10 | 5 | 4.8 | 9.7 | 0.00 | 0.00 | 0.00 | 41 | 1009.4 |
| 20260508210336 | 10 | 13 | 6.4 | 9.7 | 0.00 | 0.00 | 0.00 | 41 | 1009.4 |
| 20260508210229 | 10 | 32 | 6.4 | 9.7 | 0.00 | 0.00 | 0.00 | 42 | 1009.4 |
| 20260508210153 | 10 | 14 | 4.8 | 11.3 | 0.00 | 0.00 | 0.00 | 42 | 1009.4 |
| 20260508210057 | 10 | 36 | 3.2 | 12.9 | 0.00 | 0.00 | 0.00 | 41 | 1009.4 |
| 20260508205958 | 10 | 350 | 3.2 | 12.9 | 0.00 | 0.00 | 0.00 | 41 | 1009.4 |
| 20260508205921 | 10 | 350 | 3.2 | 16.1 | 0.00 | 0.00 | 0.00 | 41 | 1009.4 |
| 20260508205723 | 10 | 308 | 1.6 | 16.1 | 0.00 | 0.00 | 0.00 | 39 | 1009.5 |
| 20260508205617 | 10 | 308 | 3.2 | 16.1 | 0.00 | 0.00 | 0.00 | 39 | 1009.4 |
| 20260508205555 | 10 | 308 | 4.8 | 16.1 | 0.00 | 0.00 | 0.00 | 39 | 1009.4 |
| 20260508205500 | 10 | 311 | 6.4 | 16.1 | 0.00 | 0.00 | 0.00 | 41 | 1009.5 |
| 20260508205341 | 10 | 346 | 8.0 | 16.1 | 0.00 | 0.00 | 0.00 | 41 | 1009.4 |
| 20260508205224 | 10 | 344 | 9.7 | 16.1 | 0.00 | 0.00 | 0.00 | 42 | 1009.4 |
| 20260508205148 | 10 | 325 | 11.3 | 16.1 | 0.00 | 0.00 | 0.00 | 41 | 1009.4 |
| 20260508205024 | 10 | 346 | 8.0 | 16.1 | 0.00 | 0.00 | 0.00 | 41 | 1009.4 |
| 20260508204929 | 10 | 25 | 4.8 | 16.1 | 0.00 | 0.00 | 0.00 | 42 | 1009.4 |
| 20260508204850 | 10 | 351 | 4.8 | 19.3 | 0.00 | 0.00 | 0.00 | 43 | 1009.4 |
| 20260508204751 | 10 | 278 | 4.8 | 19.3 | 0.00 | 0.00 | 0.00 | 41 | 1009.4 |
| 20260508204717 | 10 | 299 | 6.4 | 19.3 | 0.00 | 0.00 | 0.00 | 41 | 1009.4 |
| 20260508204621 | 11 | 301 | 9.7 | 19.3 | 0.00 | 0.00 | 0.00 | 40 | 1009.4 |
| 20260508204542 | 11 | 321 | 9.7 | 19.3 | 0.00 | 0.00 | 0.00 | 39 | 1009.4 |
| 20260508204324 | 11 | 337 | 4.8 | 19.3 | 0.00 | 0.00 | 0.00 | 39 | 1009.3 |
| 20260508204228 | 11 | 273 | 4.8 | 19.3 | 0.00 | 0.00 | 0.00 | 40 | 1009.4 |
| 20260508204112 | 11 | 313 | 9.7 | 19.3 | 0.00 | 0.00 | 0.00 | 39 | 1009.4 |
| 20260508204047 | 11 | 334 | 9.7 | 19.3 | 0.00 | 0.00 | 0.00 | 40 | 1009.3 |
| 20260508203929 | 11 | 341 | 6.4 | 16.1 | 0.00 | 0.00 | 0.00 | 41 | 1009.4 |
| 20260508203852 | 11 | 32 | 6.4 | 9.7 | 0.00 | 0.00 | 0.00 | 41 | 1009.4 |
| 20260508203815 | 11 | 345 | 4.8 | 8.0 | 0.00 | 0.00 | 0.00 | 41 | 1009.3 |
| 20260508203641 | 11 | 340 | 4.8 | 6.4 | 0.00 | 0.00 | 0.00 | 38 | 1009.4 |
| 20260508203605 | 11 | 344 | 4.8 | 6.4 | 0.00 | 0.00 | 0.00 | 38 | 1009.4 |
| 20260508203519 | 11 | 335 | 4.8 | 6.4 | 0.00 | 0.00 | 0.00 | 39 | 1009.3 |
| 20260508203330 | 11 | 324 | 4.8 | 6.4 | 0.00 | 0.00 | 0.00 | 42 | 1009.4 |
| 20260508203245 | 11 | 350 | 3.2 | 8.0 | 0.00 | 0.00 | 0.00 | 41 | 1009.4 |
| 20260508203115 | 11 | 269 | 1.6 | 8.0 | 0.00 | 0.00 | 0.00 | 42 | 1009.3 |
| 20260508203036 | 11 | 289 | 3.2 | 8.0 | 0.00 | 0.00 | 0.00 | 40 | 1009.3 |
| 20260508202907 | 11 | 22 | 1.6 | 8.0 | 0.00 | 0.00 | 0.00 | 41 | 1009.3 |
| 20260508202821 | 11 | 265 | 0.0 | 8.0 | 0.00 | 0.00 | 0.00 | 41 | 1009.3 |
| 20260508202633 | 11 | 265 | 3.2 | 8.0 | 0.00 | 0.00 | 0.00 | 39 | 1009.3 |
| 20260508202532 | 11 | 198 | 4.8 | 8.0 | 0.00 | 0.00 | 0.00 | 39 | 1009.3 |
| 20260508202453 | 11 | 195 | 4.8 | 8.0 | 0.00 | 0.00 | 0.00 | 39 | 1009.3 |
| 20260508202409 | 11 | 210 | 4.8 | 12.9 | 0.00 | 0.00 | 0.00 | 39 | 1009.3 |
| 20260508202331 | 11 | 269 | 4.8 | 12.9 | 0.00 | 0.00 | 0.00 | 41 | 1009.3 |
| 20260508202135 | 11 | 223 | 3.2 | 16.1 | 0.00 | 0.00 | 0.00 | 39 | 1009.3 |
| 20260508202037 | 11 | 284 | 3.2 | 17.7 | 0.00 | 0.00 | 0.00 | 40 | 1009.3 |
| 20260508201940 | 11 | 274 | 3.2 | 17.7 | 0.00 | 0.00 | 0.00 | 41 | 1009.3 |
| 20260508201844 | 11 | 340 | 3.2 | 17.7 | 0.00 | 0.00 | 0.00 | 41 | 1009.3 |
| 20260508201724 | 11 | 355 | 4.8 | 17.7 | 0.00 | 0.00 | 0.00 | 39 | 1009.3 |
| 20260508201628 | 11 | 333 | 6.4 | 17.7 | 0.00 | 0.00 | 0.00 | 38 | 1009.3 |
| 20260508201550 | 11 | 331 | 6.4 | 17.7 | 0.00 | 0.00 | 0.00 | 38 | 1009.3 |
| 20260508201339 | 11 | 317 | 12.9 | 17.7 | 0.00 | 0.00 | 0.00 | 40 | 1009.3 |
| 20260508201231 | 11 | 328 | 9.7 | 17.7 | 0.00 | 0.00 | 0.00 | 41 | 1009.2 |
| 20260508201154 | 11 | 355 | 6.4 | 16.1 | 0.00 | 0.00 | 0.00 | 41 | 1009.2 |
| 20260508201059 | 11 | 63 | 1.6 | 9.7 | 0.00 | 0.00 | 0.00 | 40 | 1009.3 |
| 20260508200939 | 11 | 94 | 3.2 | 9.7 | 0.00 | 0.00 | 0.00 | 40 | 1009.3 |
| 20260508200846 | 10 | 339 | 3.2 | 12.9 | 0.00 | 0.00 | 0.00 | 41 | 1009.3 |
| 20260508200811 | 10 | 326 | 3.2 | 16.1 | 0.00 | 0.00 | 0.00 | 40 | 1009.3 |
| 20260508200642 | 10 | 221 | 4.8 | 16.1 | 0.00 | 0.00 | 0.00 | 40 | 1009.3 |
| 20260508200535 | 10 | 265 | 3.2 | 16.1 | 0.00 | 0.00 | 0.00 | 40 | 1009.3 |
| 20260508200407 | 10 | 244 | 4.8 | 16.1 | 0.00 | 0.00 | 0.00 | 41 | 1009.3 |
| 20260508200328 | 10 | 207 | 6.4 | 16.1 | 0.00 | 0.00 | 0.00 | 39 | 1009.3 |
| 20260508200159 | 10 | 226 | 9.7 | 16.1 | 0.00 | 0.00 | 0.00 | 40 | 1009.4 |
| 20260508200032 | 10 | 196 | 9.7 | 16.1 | 0.00 | 0.00 | 0.00 | 39 | 1009.4 |
| 20260508195956 | 11 | 188 | 8.0 | 17.7 | 0.00 | 0.00 | 0.00 | 40 | 1009.4 |
| 20260508195841 | 11 | 222 | 4.8 | 16.1 | 0.00 | 0.00 | 0.00 | 40 | 1009.3 |
| 20260508195737 | 11 | 197 | 6.4 | 16.1 | 0.00 | 0.00 | 0.00 | 39 | 1009.4 |
| 20260508195617 | 11 | 217 | 6.4 | 16.1 | 0.00 | 0.00 | 0.00 | 39 | 1009.4 |
| 20260508195529 | 11 | 274 | 6.4 | 14.5 | 0.00 | 0.00 | 0.00 | 40 | 1009.4 |
| 20260508195433 | 11 | 282 | 6.4 | 14.5 | 0.00 | 0.00 | 0.00 | 40 | 1009.4 |
| 20260508195355 | 11 | 290 | 6.4 | 14.5 | 0.00 | 0.00 | 0.00 | 41 | 1009.4 |
| 20260508195317 | 11 | 251 | 6.4 | 14.5 | 0.00 | 0.00 | 0.00 | 41 | 1009.4 |
| 20260508195142 | 11 | 306 | 3.2 | 16.1 | 0.00 | 0.00 | 0.00 | 41 | 1009.4 |
| 20260508195042 | 11 | 74 | 4.8 | 16.1 | 0.00 | 0.00 | 0.00 | 40 | 1009.4 |
| 20260508194925 | 11 | 239 | 6.4 | 19.3 | 0.00 | 0.00 | 0.00 | 40 | 1009.4 |
| 20260508194830 | 11 | 248 | 6.4 | 19.3 | 0.00 | 0.00 | 0.00 | 40 | 1009.4 |
| 20260508194732 | 11 | 331 | 6.4 | 19.3 | 0.00 | 0.00 | 0.00 | 41 | 1009.5 |
| 20260508194655 | 10 | 348 | 6.4 | 19.3 | 0.00 | 0.00 | 0.00 | 39 | 1009.5 |
| 20260508194617 | 11 | 299 | 8.0 | 19.3 | 0.00 | 0.00 | 0.00 | 40 | 1009.4 |
| 20260508194406 | 11 | 296 | 8.0 | 19.3 | 0.00 | 0.00 | 0.00 | 40 | 1009.4 |
| 20260508194322 | 11 | 327 | 9.7 | 19.3 | 0.00 | 0.00 | 0.00 | 43 | 1009.4 |
| 20260508194133 | 11 | 360 | 11.3 | 19.3 | 0.00 | 0.00 | 0.00 | 41 | 1009.4 |
| 20260508194048 | 11 | 15 | 8.0 | 19.3 | 0.00 | 0.00 | 0.00 | 42 | 1009.4 |
| 20260508193839 | 11 | 322 | 4.8 | 12.9 | 0.00 | 0.00 | 0.00 | 42 | 1009.4 |
| 20260508193754 | 11 | 302 | 1.6 | 8.0 | 0.00 | 0.00 | 0.00 | 43 | 1009.3 |
| 20260508193522 | 11 | 213 | 4.8 | 8.0 | 0.00 | 0.00 | 0.00 | 40 | 1009.2 |
| 20260508193425 | 11 | 213 | 3.2 | 8.0 | 0.00 | 0.00 | 0.00 | 39 | 1009.3 |
| 20260508193329 | 11 | 211 | 3.2 | 9.7 | 0.00 | 0.00 | 0.00 | 40 | 1009.2 |
| 20260508193252 | 11 | 258 | 3.2 | 9.7 | 0.00 | 0.00 | 0.00 | 40 | 1009.2 |
| 20260508193214 | 11 | 269 | 3.2 | 9.7 | 0.00 | 0.00 | 0.00 | 42 | 1009.2 |
| 20260508193036 | 11 | 292 | 1.6 | 9.7 | 0.00 | 0.00 | 0.00 | 45 | 1009.3 |
| 20260508192939 | 11 | 257 | 4.8 | 9.7 | 0.00 | 0.00 | 0.00 | 44 | 1009.4 |
| 20260508192825 | 11 | 325 | 6.4 | 9.7 | 0.00 | 0.00 | 0.00 | 44 | 1009.3 |
| 20260508192746 | 11 | 323 | 6.4 | 9.7 | 0.00 | 0.00 | 0.00 | 44 | 1009.3 |
| 20260508192621 | 11 | 333 | 8.0 | 9.7 | 0.00 | 0.00 | 0.00 | 44 | 1009.4 |
| 20260508192537 | 10 | 355 | 8.0 | 14.5 | 0.00 | 0.00 | 0.00 | 43 | 1009.4 |
| 20260508192406 | 10 | 355 | 6.4 | 14.5 | 0.00 | 0.00 | 0.00 | 43 | 1009.3 |
| 20260508192330 | 10 | 351 | 6.4 | 14.5 | 0.00 | 0.00 | 0.00 | 43 | 1009.4 |
| 20260508192132 | 10 | 298 | 6.4 | 16.1 | 0.00 | 0.00 | 0.00 | 43 | 1009.4 |
| 20260508192056 | 10 | 325 | 4.8 | 16.1 | 0.00 | 0.00 | 0.00 | 43 | 1009.4 |
| 20260508191940 | 10 | 5 | 1.6 | 17.7 | 0.00 | 0.00 | 0.00 | 44 | 1009.3 |
| 20260508191902 | 10 | 5 | 4.8 | 17.7 | 0.00 | 0.00 | 0.00 | 42 | 1009.3 |
| 20260508191725 | 10 | 360 | 9.7 | 17.7 | 0.00 | 0.00 | 0.00 | 42 | 1009.4 |
| 20260508191648 | 10 | 347 | 9.7 | 17.7 | 0.00 | 0.00 | 0.00 | 42 | 1009.4 |
| 20260508191614 | 10 | 326 | 9.7 | 17.7 | 0.00 | 0.00 | 0.00 | 42 | 1009.4 |
| 20260508191438 | 11 | 308 | 11.3 | 17.7 | 0.00 | 0.00 | 0.00 | 42 | 1009.4 |
| 20260508191341 | 11 | 329 | 8.0 | 17.7 | 0.00 | 0.00 | 0.00 | 42 | 1009.4 |
| 20260508191245 | 11 | 300 | 11.3 | 17.7 | 0.00 | 0.00 | 0.00 | 42 | 1009.4 |
| 20260508191126 | 11 | 342 | 8.0 | 17.7 | 0.00 | 0.00 | 0.00 | 45 | 1009.4 |
| 20260508191041 | 11 | 342 | 4.8 | 16.1 | 0.00 | 0.00 | 0.00 | 45 | 1009.4 |
| 20260508190945 | 10 | 344 | 3.2 | 17.7 | 0.00 | 0.00 | 0.00 | 44 | 1009.4 |
| 20260508190842 | 10 | 339 | 1.6 | 17.7 | 0.00 | 0.00 | 0.00 | 43 | 1009.4 |
| 20260508190727 | 10 | 314 | 3.2 | 17.7 | 0.00 | 0.00 | 0.00 | 43 | 1009.4 |
| 20260508190651 | 10 | 295 | 4.8 | 17.7 | 0.00 | 0.00 | 0.00 | 44 | 1009.4 |
| 20260508190611 | 10 | 319 | 11.3 | 17.7 | 0.00 | 0.00 | 0.00 | 45 | 1009.4 |
| 20260508190421 | 10 | 332 | 11.3 | 17.7 | 0.00 | 0.00 | 0.00 | 45 | 1009.4 |
| 20260508190337 | 10 | 345 | 9.7 | 17.7 | 0.00 | 0.00 | 0.00 | 44 | 1009.3 |
| 20260508190207 | 10 | 355 | 8.0 | 19.3 | 0.00 | 0.00 | 0.00 | 44 | 1009.3 |
| 20260508190119 | 10 | 348 | 4.8 | 19.3 | 0.00 | 0.00 | 0.00 | 44 | 1009.4 |
| 20260508185941 | 10 | 30 | 3.2 | 19.3 | 0.00 | 0.00 | 0.00 | 46 | 1009.4 |
| 20260508185905 | 10 | 342 | 6.4 | 19.3 | 0.00 | 0.00 | 0.00 | 45 | 1009.4 |
| 20260508185726 | 10 | 328 | 8.0 | 19.3 | 0.00 | 0.00 | 0.00 | 45 | 1009.4 |
| 20260508185648 | 10 | 288 | 8.0 | 19.3 | 0.00 | 0.00 | 0.00 | 44 | 1009.4 |
| 20260508185434 | 10 | 22 | 8.0 | 19.3 | 0.00 | 0.00 | 0.00 | 45 | 1009.4 |
| 20260508185358 | 10 | 27 | 4.8 | 12.9 | 0.00 | 0.00 | 0.00 | 44 | 1009.4 |
| 20260508185305 | 10 | 44 | 3.2 | 9.7 | 0.00 | 0.00 | 0.00 | 45 | 1009.5 |
| 20260508185144 | 10 | 166 | 3.2 | 9.7 | 0.00 | 0.00 | 0.00 | 43 | 1009.5 |
| 20260508185048 | 10 | 177 | 3.2 | 12.9 | 0.00 | 0.00 | 0.00 | 43 | 1009.5 |
| 20260508184930 | 10 | 298 | 4.8 | 12.9 | 0.00 | 0.00 | 0.00 | 43 | 1009.5 |
| 20260508184824 | 10 | 331 | 3.2 | 12.9 | 0.00 | 0.00 | 0.00 | 47 | 1009.5 |
| 20260508184744 | 10 | 19 | 3.2 | 12.9 | 0.00 | 0.00 | 0.00 | 44 | 1009.5 |
| 20260508184555 | 10 | 226 | 3.2 | 12.9 | 0.00 | 0.00 | 0.00 | 44 | 1009.5 |
| 20260508184432 | 10 | 68 | 4.8 | 12.9 | 0.00 | 0.00 | 0.00 | 44 | 1009.5 |
| 20260508184355 | 10 | 355 | 6.4 | 12.9 | 0.00 | 0.00 | 0.00 | 45 | 1009.5 |
| 20260508184240 | 10 | 298 | 8.0 | 12.9 | 0.00 | 0.00 | 0.00 | 45 | 1009.5 |
| 20260508184134 | 10 | 342 | 4.8 | 12.9 | 0.00 | 0.00 | 0.00 | 47 | 1009.5 |
| 20260508184037 | 10 | 312 | 3.2 | 12.9 | 0.00 | 0.00 | 0.00 | 47 | 1009.5 |
| 20260508183933 | 10 | 336 | 1.6 | 12.9 | 0.00 | 0.00 | 0.00 | 46 | 1009.5 |
| 20260508183827 | 10 | 332 | 3.2 | 12.9 | 0.00 | 0.00 | 0.00 | 47 | 1009.5 |
| 20260508183755 | 10 | 345 | 6.4 | 12.9 | 0.00 | 0.00 | 0.00 | 45 | 1009.5 |
| 20260508183716 | 10 | 344 | 6.4 | 12.9 | 0.00 | 0.00 | 0.00 | 47 | 1009.5 |
| 20260508183609 | 10 | 360 | 4.8 | 12.9 | 0.00 | 0.00 | 0.00 | 48 | 1009.5 |
| 20260508183530 | 10 | 29 | 1.6 | 6.4 | 0.00 | 0.00 | 0.00 | 49 | 1009.6 |
| 20260508183402 | 10 | 360 | 3.2 | 8.0 | 0.00 | 0.00 | 0.00 | 48 | 1009.6 |
| 20260508183255 | 10 | 9 | 3.2 | 9.7 | 0.00 | 0.00 | 0.00 | 46 | 1009.6 |
| 20260508183106 | 10 | 200 | 3.2 | 9.7 | 0.00 | 0.00 | 0.00 | 44 | 1009.6 |
| 20260508183027 | 10 | 221 | 3.2 | 9.7 | 0.00 | 0.00 | 0.00 | 44 | 1009.7 |
| 20260508182858 | 10 | 130 | 1.6 | 14.5 | 0.00 | 0.00 | 0.00 | 45 | 1009.7 |
| 20260508182729 | 10 | 41 | 3.2 | 14.5 | 0.00 | 0.00 | 0.00 | 45 | 1009.7 |
| 20260508182653 | 10 | 34 | 3.2 | 14.5 | 0.00 | 0.00 | 0.00 | 45 | 1009.7 |
| 20260508182540 | 10 | 40 | 6.4 | 17.7 | 0.00 | 0.00 | 0.00 | 45 | 1009.6 |
| 20260508182503 | 10 | 26 | 6.4 | 17.7 | 0.00 | 0.00 | 0.00 | 47 | 1009.6 |
| 20260508182429 | 10 | 27 | 4.8 | 19.3 | 0.00 | 0.00 | 0.00 | 47 | 1009.7 |
| 20260508182248 | 10 | 15 | 8.0 | 22.5 | 0.00 | 0.00 | 0.00 | 45 | 1009.7 |
| 20260508182148 | 10 | 5 | 9.7 | 22.5 | 0.00 | 0.00 | 0.00 | 45 | 1009.7 |
| 20260508181930 | 10 | 311 | 6.4 | 22.5 | 0.00 | 0.00 | 0.00 | 46 | 1009.8 |
| 20260508181852 | 10 | 325 | 6.4 | 22.5 | 0.00 | 0.00 | 0.00 | 45 | 1009.8 |
| 20260508181734 | 10 | 315 | 12.9 | 22.5 | 0.00 | 0.00 | 0.00 | 46 | 1009.8 |
| 20260508181659 | 10 | 329 | 11.3 | 22.5 | 0.00 | 0.00 | 0.00 | 46 | 1009.8 |
| 20260508181614 | 10 | 327 | 11.3 | 22.5 | 0.00 | 0.00 | 0.00 | 46 | 1009.8 |
| 20260508181428 | 10 | 325 | 11.3 | 22.5 | 0.00 | 0.00 | 0.00 | 46 | 1009.8 |
| 20260508181351 | 10 | 5 | 8.0 | 20.9 | 0.00 | 0.00 | 0.00 | 46 | 1009.8 |
| 20260508181233 | 10 | 330 | 11.3 | 20.9 | 0.00 | 0.00 | 0.00 | 47 | 1009.8 |
| 20260508181156 | 10 | 355 | 12.9 | 20.9 | 0.00 | 0.00 | 0.00 | 46 | 1009.8 |
| 20260508181118 | 10 | 5 | 12.9 | 20.9 | 0.00 | 0.00 | 0.00 | 47 | 1009.8 |
| 20260508180959 | 10 | 20 | 8.0 | 16.1 | 0.00 | 0.00 | 0.00 | 48 | 1009.8 |
| 20260508180841 | 10 | 348 | 6.4 | 12.9 | 0.00 | 0.00 | 0.00 | 48 | 1009.8 |
| 20260508180735 | 10 | 14 | 3.2 | 12.9 | 0.00 | 0.00 | 0.00 | 47 | 1009.8 |
| 20260508180659 | 10 | 5 | 3.2 | 12.9 | 0.00 | 0.00 | 0.00 | 47 | 1009.8 |
| 20260508180620 | 10 | 255 | 3.2 | 14.5 | 0.00 | 0.00 | 0.00 | 48 | 1009.8 |
| 20260508180443 | 10 | 282 | 4.8 | 14.5 | 0.00 | 0.00 | 0.00 | 48 | 1009.8 |
| 20260508180410 | 10 | 228 | 4.8 | 14.5 | 0.00 | 0.00 | 0.00 | 49 | 1009.9 |
| 20260508180230 | 10 | 318 | 6.4 | 14.5 | 0.00 | 0.00 | 0.00 | 48 | 1009.8 |
| 20260508180152 | 10 | 313 | 6.4 | 14.5 | 0.00 | 0.00 | 0.00 | 48 | 1009.8 |
| 20260508180055 | 10 | 332 | 6.4 | 14.5 | 0.00 | 0.00 | 0.00 | 47 | 1009.8 |
| 20260508175957 | 10 | 355 | 6.4 | 14.5 | 0.00 | 0.00 | 0.00 | 46 | 1009.8 |
| 20260508175920 | 10 | 345 | 6.4 | 14.5 | 0.00 | 0.00 | 0.00 | 47 | 1009.8 |
| 20260508175723 | 10 | 5 | 6.4 | 17.7 | 0.00 | 0.00 | 0.00 | 46 | 1009.8 |
| 20260508175626 | 10 | 290 | 6.4 | 17.7 | 0.00 | 0.00 | 0.00 | 47 | 1009.8 |
| 20260508175541 | 10 | 310 | 4.8 | 17.7 | 0.00 | 0.00 | 0.00 | 47 | 1009.8 |
| 20260508175502 | 10 | 302 | 6.4 | 17.7 | 0.00 | 0.00 | 0.00 | 46 | 1009.8 |
| 20260508175336 | 10 | 350 | 6.4 | 17.7 | 0.00 | 0.00 | 0.00 | 46 | 1009.8 |
| 20260508175229 | 10 | 315 | 3.2 | 17.7 | 0.00 | 0.00 | 0.00 | 46 | 1009.8 |
| 20260508175039 | 10 | 322 | 8.0 | 17.7 | 0.00 | 0.00 | 0.00 | 46 | 1009.8 |
| 20260508174952 | 10 | 331 | 8.0 | 17.7 | 0.00 | 0.00 | 0.00 | 49 | 1009.8 |
| 20260508174822 | 10 | 305 | 3.2 | 11.3 | 0.00 | 0.00 | 0.00 | 48 | 1009.8 |
| 20260508174743 | 10 | 200 | 4.8 | 11.3 | 0.00 | 0.00 | 0.00 | 47 | 1009.8 |
| 20260508174607 | 10 | 282 | 6.4 | 11.3 | 0.00 | 0.00 | 0.00 | 47 | 1009.7 |
| 20260508174528 | 10 | 212 | 6.4 | 12.9 | 0.00 | 0.00 | 0.00 | 47 | 1009.8 |
| 20260508174339 | 10 | 338 | 3.2 | 11.3 | 0.00 | 0.00 | 0.00 | 47 | 1009.8 |
| 20260508174234 | 10 | 242 | 1.6 | 11.3 | 0.00 | 0.00 | 0.00 | 49 | 1009.8 |
| 20260508174133 | 10 | 24 | 0.0 | 8.0 | 0.00 | 0.00 | 0.00 | 50 | 1009.9 |
| 20260508174054 | 9 | 34 | 0.0 | 8.0 | 0.00 | 0.00 | 0.00 | 50 | 1009.9 |
| 20260508174017 | 9 | 71 | 0.0 | 8.0 | 0.00 | 0.00 | 0.00 | 47 | 1009.8 |
| 20260508173900 | 9 | 87 | 1.6 | 8.0 | 0.00 | 0.00 | 0.00 | 49 | 1009.9 |
| 20260508173822 | 9 | 87 | 1.6 | 8.0 | 0.00 | 0.00 | 0.00 | 49 | 1009.9 |
| 20260508173626 | 9 | 5 | 3.2 | 8.0 | 0.00 | 0.00 | 0.00 | 48 | 1009.9 |
| 20260508173528 | 9 | 316 | 3.2 | 8.0 | 0.00 | 0.00 | 0.00 | 47 | 1010.0 |
| 20260508173432 | 9 | 302 | 4.8 | 8.0 | 0.00 | 0.00 | 0.00 | 47 | 1010.0 |
| 20260508173355 | 9 | 325 | 3.2 | 8.0 | 0.00 | 0.00 | 0.00 | 48 | 1010.0 |
| 20260508173317 | 9 | 299 | 1.6 | 8.0 | 0.00 | 0.00 | 0.00 | 48 | 1010.0 |
| 20260508173153 | 9 | 355 | 1.6 | 6.4 | 0.00 | 0.00 | 0.00 | 47 | 1010.0 |
| 20260508173048 | 9 | 346 | 1.6 | 6.4 | 0.00 | 0.00 | 0.00 | 48 | 1010.0 |
| 20260508172919 | 9 | 306 | 4.8 | 8.0 | 0.00 | 0.00 | 0.00 | 48 | 1010.0 |
| 20260508172841 | 9 | 349 | 3.2 | 8.0 | 0.00 | 0.00 | 0.00 | 47 | 1010.0 |
| 20260508172644 | 9 | 322 | 1.6 | 8.0 | 0.00 | 0.00 | 0.00 | 47 | 1010.0 |
| 20260508172606 | 9 | 294 | 3.2 | 8.0 | 0.00 | 0.00 | 0.00 | 49 | 1010.0 |
| 20260508172511 | 9 | 282 | 1.6 | 8.0 | 0.00 | 0.00 | 0.00 | 47 | 1010.0 |
| 20260508172433 | 9 | 263 | 3.2 | 8.0 | 0.00 | 0.00 | 0.00 | 47 | 1010.0 |
| 20260508172306 | 9 | 237 | 6.4 | 8.0 | 0.00 | 0.00 | 0.00 | 49 | 1010.0 |
| 20260508172157 | 9 | 258 | 4.8 | 8.0 | 0.00 | 0.00 | 0.00 | 48 | 1010.0 |
| 20260508172121 | 9 | 182 | 3.2 | 9.7 | 0.00 | 0.00 | 0.00 | 48 | 1010.0 |
| 20260508171936 | 9 | 280 | 1.6 | 12.9 | 0.00 | 0.00 | 0.00 | 47 | 1010.0 |
| 20260508171831 | 9 | 287 | 1.6 | 12.9 | 0.00 | 0.00 | 0.00 | 47 | 1010.0 |
| 20260508171752 | 9 | 350 | 1.6 | 12.9 | 0.00 | 0.00 | 0.00 | 47 | 1010.0 |
| 20260508171655 | 9 | 329 | 1.6 | 12.9 | 0.00 | 0.00 | 0.00 | 46 | 1010.0 |
| 20260508171625 | 9 | 329 | 1.6 | 12.9 | 0.00 | 0.00 | 0.00 | 45 | 1010.0 |
| 20260508171455 | 9 | 328 | 1.6 | 17.7 | 0.00 | 0.00 | 0.00 | 45 | 1010.0 |
| 20260508171328 | 9 | 328 | 4.8 | 17.7 | 0.00 | 0.00 | 0.00 | 47 | 1010.0 |
| 20260508171138 | 9 | 320 | 6.4 | 17.7 | 0.00 | 0.00 | 0.00 | 47 | 1010.0 |
| 20260508171035 | 9 | 309 | 6.4 | 17.7 | 0.00 | 0.00 | 0.00 | 48 | 1010.0 |
| 20260508170921 | 8 | 313 | 6.4 | 17.7 | 0.00 | 0.00 | 0.00 | 47 | 1010.0 |
| 20260508170844 | 8 | 300 | 8.0 | 17.7 | 0.00 | 0.00 | 0.00 | 47 | 1010.0 |
| 20260508170807 | 8 | 332 | 9.7 | 17.7 | 0.00 | 0.00 | 0.00 | 47 | 1010.0 |
| 20260508170650 | 8 | 341 | 8.0 | 17.7 | 0.00 | 0.00 | 0.00 | 48 | 1010.1 |
| 20260508170532 | 8 | 329 | 4.8 | 16.1 | 0.00 | 0.00 | 0.00 | 48 | 1010.0 |
| 20260508170435 | 8 | 350 | 1.6 | 16.1 | 0.00 | 0.00 | 0.00 | 48 | 1010.0 |
| 20260508170358 | 8 | 335 | 1.6 | 16.1 | 0.00 | 0.00 | 0.00 | 48 | 1010.0 |
| 20260508170321 | 8 | 335 | 1.6 | 16.1 | 0.00 | 0.00 | 0.00 | 48 | 1010.0 |
| 20260508170123 | 8 | 351 | 4.8 | 16.1 | 0.00 | 0.00 | 0.00 | 48 | 1010.0 |
| 20260508170044 | 8 | 355 | 6.4 | 16.1 | 0.00 | 0.00 | 0.00 | 47 | 1010.0 |
| 20260508165933 | 8 | 331 | 8.0 | 16.1 | 0.00 | 0.00 | 0.00 | 46 | 1010.0 |
| 20260508165854 | 8 | 295 | 9.7 | 16.1 | 0.00 | 0.00 | 0.00 | 48 | 1010.0 |
| 20260508165756 | 8 | 302 | 9.7 | 16.1 | 0.00 | 0.00 | 0.00 | 48 | 1010.0 |
| 20260508165700 | 8 | 342 | 9.7 | 14.5 | 0.00 | 0.00 | 0.00 | 48 | 1010.0 |
| 20260508165622 | 8 | 347 | 8.0 | 14.5 | 0.00 | 0.00 | 0.00 | 48 | 1010.0 |
| 20260508165430 | 8 | 317 | 6.4 | 12.9 | 0.00 | 0.00 | 0.00 | 48 | 1010.0 |
| 20260508165333 | 8 | 336 | 3.2 | 9.7 | 0.00 | 0.00 | 0.00 | 48 | 1010.0 |
| 20260508165245 | 8 | 24 | 3.2 | 9.7 | 0.00 | 0.00 | 0.00 | 48 | 1010.0 |
| 20260508165126 | 8 | 24 | 4.8 | 9.7 | 0.00 | 0.00 | 0.00 | 47 | 1010.0 |
| 20260508165030 | 8 | 10 | 4.8 | 9.7 | 0.00 | 0.00 | 0.00 | 48 | 1010.0 |
| 20260508164957 | 8 | 340 | 4.8 | 9.7 | 0.00 | 0.00 | 0.00 | 48 | 1010.0 |
| 20260508164919 | 8 | 355 | 4.8 | 9.7 | 0.00 | 0.00 | 0.00 | 47 | 1010.0 |
| 20260508164750 | 8 | 330 | 3.2 | 16.1 | 0.00 | 0.00 | 0.00 | 48 | 1010.0 |
| 20260508164644 | 8 | 26 | 3.2 | 16.1 | 0.00 | 0.00 | 0.00 | 47 | 1010.0 |
| 20260508164515 | 8 | 51 | 1.6 | 16.1 | 0.00 | 0.00 | 0.00 | 46 | 1010.0 |
| 20260508164437 | 8 | 13 | 1.6 | 16.1 | 0.00 | 0.00 | 0.00 | 46 | 1010.0 |
| 20260508164239 | 9 | 300 | 6.4 | 16.1 | 0.00 | 0.00 | 0.00 | 46 | 1010.0 |
| 20260508164202 | 9 | 311 | 8.0 | 16.1 | 0.00 | 0.00 | 0.00 | 46 | 1010.0 |
| 20260508164105 | 9 | 345 | 8.0 | 16.1 | 0.00 | 0.00 | 0.00 | 45 | 1010.0 |
| 20260508164027 | 9 | 342 | 9.7 | 16.1 | 0.00 | 0.00 | 0.00 | 45 | 1010.0 |
| 20260508163832 | 9 | 315 | 8.0 | 14.5 | 0.00 | 0.00 | 0.00 | 45 | 1010.0 |
| 20260508163738 | 9 | 347 | 6.4 | 14.5 | 0.00 | 0.00 | 0.00 | 46 | 1009.9 |
| 20260508163641 | 9 | 355 | 4.8 | 12.9 | 0.00 | 0.00 | 0.00 | 46 | 1009.9 |
| 20260508163544 | 9 | 301 | 4.8 | 12.9 | 0.00 | 0.00 | 0.00 | 47 | 1009.9 |
| 20260508163420 | 9 | 302 | 3.2 | 14.5 | 0.00 | 0.00 | 0.00 | 46 | 1010.0 |
| 20260508163335 | 9 | 340 | 3.2 | 14.5 | 0.00 | 0.00 | 0.00 | 46 | 1009.9 |
| 20260508163236 | 9 | 316 | 3.2 | 14.5 | 0.00 | 0.00 | 0.00 | 47 | 1009.9 |
| 20260508163201 | 9 | 322 | 4.8 | 14.5 | 0.00 | 0.00 | 0.00 | 47 | 1009.9 |
| 20260508163105 | 9 | 271 | 4.8 | 14.5 | 0.00 | 0.00 | 0.00 | 47 | 1009.9 |
| 20260508163031 | 9 | 288 | 4.8 | 14.5 | 0.00 | 0.00 | 0.00 | 48 | 1009.9 |
| 20260508162834 | 9 | 338 | 6.4 | 14.5 | 0.00 | 0.00 | 0.00 | 47 | 1009.9 |
| 20260508162738 | 9 | 326 | 8.0 | 14.5 | 0.00 | 0.00 | 0.00 | 48 | 1009.9 |
| 20260508162649 | 9 | 12 | 8.0 | 14.5 | 0.00 | 0.00 | 0.00 | 48 | 1009.9 |
| 20260508162613 | 9 | 347 | 8.0 | 16.1 | 0.00 | 0.00 | 0.00 | 48 | 1009.9 |
| 20260508162442 | 9 | 355 | 4.8 | 16.1 | 0.00 | 0.00 | 0.00 | 47 | 1009.9 |
| 20260508162335 | 9 | 336 | 4.8 | 16.1 | 0.00 | 0.00 | 0.00 | 46 | 1009.9 |
| 20260508162206 | 9 | 27 | 6.4 | 16.1 | 0.00 | 0.00 | 0.00 | 45 | 1009.9 |
| 20260508162128 | 9 | 19 | 8.0 | 16.1 | 0.00 | 0.00 | 0.00 | 46 | 1009.9 |
| 20260508161931 | 9 | 339 | 8.0 | 16.1 | 0.00 | 0.00 | 0.00 | 45 | 1009.9 |
| 20260508161838 | 9 | 330 | 9.7 | 16.1 | 0.00 | 0.00 | 0.00 | 45 | 1009.9 |
| 20260508161741 | 9 | 313 | 8.0 | 16.1 | 0.00 | 0.00 | 0.00 | 47 | 1010.0 |
| 20260508161644 | 9 | 319 | 6.4 | 17.7 | 0.00 | 0.00 | 0.00 | 48 | 1010.0 |
| 20260508161538 | 9 | 348 | 6.4 | 17.7 | 0.00 | 0.00 | 0.00 | 47 | 1009.9 |
| 20260508161502 | 9 | 347 | 6.4 | 17.7 | 0.00 | 0.00 | 0.00 | 47 | 1009.9 |
| 20260508161406 | 9 | 333 | 4.8 | 17.7 | 0.00 | 0.00 | 0.00 | 46 | 1009.9 |
| 20260508161329 | 9 | 327 | 4.8 | 17.7 | 0.00 | 0.00 | 0.00 | 46 | 1009.9 |
| 20260508161129 | 9 | 333 | 4.8 | 17.7 | 0.00 | 0.00 | 0.00 | 46 | 1009.9 |
| 20260508161036 | 9 | 298 | 8.0 | 17.7 | 0.00 | 0.00 | 0.00 | 47 | 1010.0 |
| 20260508160939 | 9 | 325 | 9.7 | 17.7 | 0.00 | 0.00 | 0.00 | 47 | 1010.0 |
| 20260508160842 | 9 | 309 | 9.7 | 17.7 | 0.00 | 0.00 | 0.00 | 49 | 1010.0 |
| 20260508160758 | 9 | 333 | 8.0 | 14.5 | 0.00 | 0.00 | 0.00 | 49 | 1010.0 |
| 20260508160629 | 9 | 325 | 4.8 | 12.9 | 0.00 | 0.00 | 0.00 | 48 | 1010.0 |
| 20260508160530 | 9 | 321 | 4.8 | 12.9 | 0.00 | 0.00 | 0.00 | 48 | 1010.0 |
| 20260508160335 | 8 | 316 | 3.2 | 12.9 | 0.00 | 0.00 | 0.00 | 49 | 1010.0 |
| 20260508160235 | 8 | 229 | 3.2 | 12.9 | 0.00 | 0.00 | 0.00 | 48 | 1010.0 |
| 20260508160140 | 8 | 228 | 3.2 | 12.9 | 0.00 | 0.00 | 0.00 | 49 | 1009.9 |
| 20260508160040 | 8 | 247 | 3.2 | 12.9 | 0.00 | 0.00 | 0.00 | 49 | 1009.9 |
| 20260508155915 | 8 | 308 | 4.8 | 12.9 | 0.00 | 0.00 | 0.00 | 49 | 1009.9 |
| 20260508155829 | 8 | 309 | 6.4 | 12.9 | 0.00 | 0.00 | 0.00 | 49 | 1010.0 |
| 20260508155614 | 8 | 310 | 6.4 | 12.9 | 0.00 | 0.00 | 0.00 | 47 | 1010.0 |
| 20260508155545 | 8 | 291 | 4.8 | 12.9 | 0.00 | 0.00 | 0.00 | 47 | 1010.0 |
| 20260508155425 | 8 | 325 | 6.4 | 12.9 | 0.00 | 0.00 | 0.00 | 48 | 1010.0 |
| 20260508155319 | 8 | 325 | 4.8 | 12.9 | 0.00 | 0.00 | 0.00 | 48 | 1010.0 |
| 20260508155129 | 8 | 275 | 4.8 | 12.9 | 0.00 | 0.00 | 0.00 | 49 | 1010.0 |
| 20260508155045 | 8 | 316 | 6.4 | 12.9 | 0.00 | 0.00 | 0.00 | 49 | 1010.0 |
| 20260508154917 | 8 | 244 | 4.8 | 12.9 | 0.00 | 0.00 | 0.00 | 49 | 1009.9 |
| 20260508154839 | 8 | 191 | 3.2 | 16.1 | 0.00 | 0.00 | 0.00 | 50 | 1009.9 |
| 20260508154713 | 8 | 198 | 3.2 | 16.1 | 0.00 | 0.00 | 0.00 | 48 | 1009.8 |
| 20260508154629 | 8 | 180 | 1.6 | 16.1 | 0.00 | 0.00 | 0.00 | 48 | 1010.0 |
| 20260508154438 | 8 | 318 | 3.2 | 16.1 | 0.00 | 0.00 | 0.00 | 49 | 1010.0 |
| 20260508154354 | 8 | 318 | 4.8 | 16.1 | 0.00 | 0.00 | 0.00 | 49 | 1010.0 |
| 20260508154226 | 8 | 257 | 6.4 | 16.1 | 0.00 | 0.00 | 0.00 | 48 | 1009.9 |
| 20260508154125 | 8 | 284 | 8.0 | 16.1 | 0.00 | 0.00 | 0.00 | 48 | 1009.9 |
| 20260508153928 | 8 | 318 | 11.3 | 16.1 | 0.00 | 0.00 | 0.00 | 48 | 1009.9 |
| 20260508153852 | 8 | 337 | 8.0 | 22.5 | 0.00 | 0.00 | 0.00 | 48 | 1009.9 |
| 20260508153733 | 8 | 348 | 6.4 | 22.5 | 0.00 | 0.00 | 0.00 | 47 | 1009.9 |
| 20260508153633 | 8 | 355 | 4.8 | 22.5 | 0.00 | 0.00 | 0.00 | 47 | 1009.9 |
| 20260508153601 | 8 | 342 | 3.2 | 22.5 | 0.00 | 0.00 | 0.00 | 48 | 1009.9 |
| 20260508153506 | 8 | 345 | 3.2 | 22.5 | 0.00 | 0.00 | 0.00 | 47 | 1009.8 |
| 20260508153427 | 9 | 333 | 6.4 | 22.5 | 0.00 | 0.00 | 0.00 | 46 | 1009.9 |
| 20260508153258 | 9 | 275 | 11.3 | 22.5 | 0.00 | 0.00 | 0.00 | 46 | 1009.9 |
| 20260508153132 | 9 | 289 | 9.7 | 22.5 | 0.00 | 0.00 | 0.00 | 47 | 1009.9 |
| 20260508153025 | 9 | 355 | 4.8 | 12.9 | 0.00 | 0.00 | 0.00 | 48 | 1009.8 |
| 20260508152948 | 9 | 223 | 6.4 | 16.1 | 0.00 | 0.00 | 0.00 | 47 | 1009.8 |
| 20260508152732 | 9 | 217 | 6.4 | 16.1 | 0.00 | 0.00 | 0.00 | 45 | 1009.8 |
| 20260508152633 | 9 | 5 | 6.4 | 16.1 | 0.00 | 0.00 | 0.00 | 45 | 1009.8 |
| 20260508152540 | 9 | 317 | 6.4 | 16.1 | 0.00 | 0.00 | 0.00 | 46 | 1009.8 |
| 20260508152442 | 9 | 294 | 8.0 | 16.1 | 0.00 | 0.00 | 0.00 | 47 | 1009.8 |
| 20260508152357 | 9 | 297 | 8.0 | 16.1 | 0.00 | 0.00 | 0.00 | 45 | 1009.8 |
| 20260508152226 | 9 | 14 | 9.7 | 16.1 | 0.00 | 0.00 | 0.00 | 46 | 1009.8 |
| 20260508152126 | 9 | 5 | 9.7 | 16.1 | 0.00 | 0.00 | 0.00 | 47 | 1009.8 |
| 20260508152008 | 9 | 360 | 4.8 | 16.1 | 0.00 | 0.00 | 0.00 | 49 | 1009.8 |
| 20260508151823 | 9 | 326 | 4.8 | 19.3 | 0.00 | 0.00 | 0.00 | 49 | 1009.8 |
| 20260508151725 | 9 | 333 | 9.7 | 19.3 | 0.00 | 0.00 | 0.00 | 48 | 1009.8 |
| 20260508151658 | 9 | 355 | 11.3 | 19.3 | 0.00 | 0.00 | 0.00 | 47 | 1009.8 |
| 20260508151618 | 9 | 344 | 11.3 | 19.3 | 0.00 | 0.00 | 0.00 | 47 | 1009.8 |
| 20260508151428 | 9 | 311 | 9.7 | 19.3 | 0.00 | 0.00 | 0.00 | 48 | 1009.8 |
| 20260508151323 | 9 | 330 | 11.3 | 19.3 | 0.00 | 0.00 | 0.00 | 47 | 1009.8 |
| 20260508151248 | 9 | 350 | 11.3 | 19.3 | 0.00 | 0.00 | 0.00 | 48 | 1009.8 |
| 20260508151205 | 9 | 344 | 8.0 | 19.3 | 0.00 | 0.00 | 0.00 | 48 | 1009.8 |
| 20260508151127 | 9 | 16 | 8.0 | 19.3 | 0.00 | 0.00 | 0.00 | 48 | 1009.7 |
| 20260508150930 | 9 | 326 | 8.0 | 16.1 | 0.00 | 0.00 | 0.00 | 48 | 1009.8 |
| 20260508150833 | 10 | 355 | 9.7 | 14.5 | 0.00 | 0.00 | 0.00 | 48 | 1009.8 |
| 20260508150731 | 10 | 323 | 12.9 | 14.5 | 0.00 | 0.00 | 0.00 | 47 | 1009.8 |
| 20260508150655 | 10 | 302 | 11.3 | 14.5 | 0.00 | 0.00 | 0.00 | 49 | 1009.8 |
| 20260508150539 | 10 | 351 | 6.4 | 14.5 | 0.00 | 0.00 | 0.00 | 48 | 1009.7 |
| 20260508150444 | 9 | 294 | 3.2 | 11.3 | 0.00 | 0.00 | 0.00 | 48 | 1009.7 |
| 20260508150337 | 9 | 307 | 1.6 | 11.3 | 0.00 | 0.00 | 0.00 | 48 | 1009.7 |
| 20260508150301 | 9 | 360 | 3.2 | 11.3 | 0.00 | 0.00 | 0.00 | 48 | 1009.7 |
| 20260508150204 | 9 | 341 | 3.2 | 11.3 | 0.00 | 0.00 | 0.00 | 48 | 1009.7 |
| 20260508150125 | 9 | 343 | 3.2 | 11.3 | 0.00 | 0.00 | 0.00 | 48 | 1009.7 |
| 20260508145928 | 9 | 275 | 6.4 | 11.3 | 0.00 | 0.00 | 0.00 | 50 | 1009.8 |
| 20260508145835 | 9 | 315 | 4.8 | 16.1 | 0.00 | 0.00 | 0.00 | 49 | 1009.8 |
| 20260508145739 | 9 | 341 | 4.8 | 16.1 | 0.00 | 0.00 | 0.00 | 49 | 1009.8 |
| 20260508145702 | 8 | 19 | 4.8 | 16.1 | 0.00 | 0.00 | 0.00 | 49 | 1009.8 |
| 20260508145523 | 8 | 38 | 4.8 | 16.1 | 0.00 | 0.00 | 0.00 | 48 | 1009.8 |
| 20260508145446 | 8 | 350 | 6.4 | 16.1 | 0.00 | 0.00 | 0.00 | 48 | 1009.8 |
| 20260508145408 | 8 | 349 | 6.4 | 16.1 | 0.00 | 0.00 | 0.00 | 49 | 1009.8 |
| 20260508145223 | 8 | 360 | 8.0 | 16.1 | 0.00 | 0.00 | 0.00 | 49 | 1009.9 |
| 20260508145144 | 8 | 24 | 8.0 | 16.1 | 0.00 | 0.00 | 0.00 | 49 | 1009.8 |
| 20260508145037 | 8 | 327 | 6.4 | 16.1 | 0.00 | 0.00 | 0.00 | 48 | 1009.9 |
| 20260508144945 | 8 | 321 | 1.6 | 11.3 | 0.00 | 0.00 | 0.00 | 48 | 1009.9 |
| 20260508144830 | 8 | 251 | 4.8 | 11.3 | 0.00 | 0.00 | 0.00 | 48 | 1009.9 |
| 20260508144751 | 8 | 260 | 8.0 | 11.3 | 0.00 | 0.00 | 0.00 | 49 | 1009.9 |
| 20260508144600 | 8 | 315 | 1.6 | 11.3 | 0.00 | 0.00 | 0.00 | 49 | 1010.0 |
| 20260508144433 | 8 | 139 | 3.2 | 17.7 | 0.00 | 0.00 | 0.00 | 49 | 1010.0 |
| 20260508144355 | 8 | 142 | 4.8 | 17.7 | 0.00 | 0.00 | 0.00 | 49 | 1010.0 |
| 20260508144258 | 8 | 202 | 4.8 | 17.7 | 0.00 | 0.00 | 0.00 | 49 | 1010.0 |
| 20260508144220 | 8 | 173 | 4.8 | 17.7 | 0.00 | 0.00 | 0.00 | 49 | 1010.0 |
| 20260508144023 | 8 | 141 | 8.0 | 17.7 | 0.00 | 0.00 | 0.00 | 48 | 1010.0 |
| 20260508143930 | 8 | 163 | 8.0 | 17.7 | 0.00 | 0.00 | 0.00 | 48 | 1010.1 |
| 20260508143835 | 8 | 205 | 6.4 | 17.7 | 0.00 | 0.00 | 0.00 | 48 | 1010.1 |
| 20260508143758 | 8 | 257 | 8.0 | 17.7 | 0.00 | 0.00 | 0.00 | 48 | 1010.1 |
| 20260508143606 | 8 | 298 | 6.4 | 17.7 | 0.00 | 0.00 | 0.00 | 49 | 1010.0 |
| 20260508143522 | 8 | 248 | 4.8 | 17.7 | 0.00 | 0.00 | 0.00 | 48 | 1010.1 |
| 20260508143331 | 8 | 209 | 3.2 | 17.7 | 0.00 | 0.00 | 0.00 | 48 | 1010.0 |
| 20260508143247 | 8 | 345 | 4.8 | 17.7 | 0.00 | 0.00 | 0.00 | 48 | 1010.0 |
| 20260508143037 | 8 | 28 | 8.0 | 17.7 | 0.00 | 0.00 | 0.00 | 49 | 1010.1 |
| 20260508142951 | 8 | 342 | 1.6 | 9.7 | 0.00 | 0.00 | 0.00 | 49 | 1010.1 |
| 20260508142759 | 8 | 211 | 1.6 | 8.0 | 0.00 | 0.00 | 0.00 | 48 | 1010.1 |
| 20260508142644 | 8 | 239 | 1.6 | 11.3 | 0.00 | 0.00 | 0.00 | 48 | 1010.1 |
| 20260508142521 | 8 | 243 | 1.6 | 12.9 | 0.00 | 0.00 | 0.00 | 48 | 1010.2 |
| 20260508142436 | 8 | 243 | 0.0 | 12.9 | 0.00 | 0.00 | 0.00 | 48 | 1010.2 |
| 20260508142357 | 8 | 243 | 0.0 | 12.9 | 0.00 | 0.00 | 0.00 | 48 | 1010.2 |
| 20260508142300 | 8 | 243 | 1.6 | 12.9 | 0.00 | 0.00 | 0.00 | 48 | 1010.2 |
| 20260508142125 | 8 | 240 | 4.8 | 12.9 | 0.00 | 0.00 | 0.00 | 47 | 1010.2 |
| 20260508142041 | 8 | 273 | 4.8 | 12.9 | 0.00 | 0.00 | 0.00 | 47 | 1010.2 |
| 20260508141912 | 8 | 253 | 4.8 | 12.9 | 0.00 | 0.00 | 0.00 | 47 | 1010.2 |
| 20260508141834 | 8 | 240 | 6.4 | 12.9 | 0.00 | 0.00 | 0.00 | 47 | 1010.2 |
| 20260508141710 | 8 | 248 | 6.4 | 12.9 | 0.00 | 0.00 | 0.00 | 46 | 1010.1 |
| 20260508141623 | 8 | 290 | 6.4 | 12.9 | 0.00 | 0.00 | 0.00 | 46 | 1010.1 |
| 20260508141435 | 7 | 237 | 3.2 | 9.7 | 0.00 | 0.00 | 0.00 | 46 | 1010.2 |
| 20260508141349 | 7 | 300 | 3.2 | 9.7 | 0.00 | 0.00 | 0.00 | 47 | 1010.2 |
| 20260508141208 | 7 | 329 | 3.2 | 16.1 | 0.00 | 0.00 | 0.00 | 47 | 1010.2 |
| 20260508141018 | 7 | 317 | 3.2 | 16.1 | 0.00 | 0.00 | 0.00 | 47 | 1010.2 |
| 20260508140934 | 7 | 265 | 1.6 | 16.1 | 0.00 | 0.00 | 0.00 | 47 | 1010.2 |
| 20260508140804 | 7 | 321 | 1.6 | 16.1 | 0.00 | 0.00 | 0.00 | 47 | 1010.2 |
| 20260508140724 | 7 | 321 | 1.6 | 16.1 | 0.00 | 0.00 | 0.00 | 47 | 1010.2 |
| 20260508140528 | 7 | 265 | 8.0 | 16.1 | 0.00 | 0.00 | 0.00 | 47 | 1010.3 |
| 20260508140452 | 7 | 286 | 9.7 | 16.1 | 0.00 | 0.00 | 0.00 | 47 | 1010.3 |
| 20260508140400 | 7 | 289 | 6.4 | 16.1 | 0.00 | 0.00 | 0.00 | 46 | 1010.3 |
| 20260508140241 | 7 | 221 | 3.2 | 12.9 | 0.00 | 0.00 | 0.00 | 47 | 1010.3 |
| 20260508140122 | 7 | 247 | 3.2 | 12.9 | 0.00 | 0.00 | 0.00 | 47 | 1010.2 |
| 20260508140045 | 7 | 213 | 4.8 | 12.9 | 0.00 | 0.00 | 0.00 | 47 | 1010.2 |
| 20260508140008 | 7 | 195 | 3.2 | 12.9 | 0.00 | 0.00 | 0.00 | 47 | 1010.3 |
| 20260508135912 | 7 | 267 | 3.2 | 12.9 | 0.00 | 0.00 | 0.00 | 46 | 1010.1 |
| 20260508135835 | 7 | 169 | 3.2 | 12.9 | 0.00 | 0.00 | 0.00 | 46 | 1010.1 |
| 20260508135705 | 7 | 319 | 1.6 | 12.9 | 0.00 | 0.00 | 0.00 | 46 | 1010.1 |
| 20260508135621 | 7 | 21 | 3.2 | 12.9 | 0.00 | 0.00 | 0.00 | 46 | 1010.2 |
| 20260508135451 | 7 | 223 | 6.4 | 12.9 | 0.00 | 0.00 | 0.00 | 46 | 1010.2 |
| 20260508135352 | 7 | 205 | 4.8 | 11.3 | 0.00 | 0.00 | 0.00 | 46 | 1010.2 |
| 20260508135205 | 7 | 237 | 4.8 | 11.3 | 0.00 | 0.00 | 0.00 | 45 | 1010.2 |
| 20260508135119 | 7 | 188 | 4.8 | 11.3 | 0.00 | 0.00 | 0.00 | 45 | 1010.2 |
| 20260508134931 | 7 | 240 | 3.2 | 11.3 | 0.00 | 0.00 | 0.00 | 45 | 1010.2 |
| 20260508134824 | 7 | 237 | 4.8 | 11.3 | 0.00 | 0.00 | 0.00 | 45 | 1010.2 |
| 20260508134747 | 7 | 248 | 6.4 | 12.9 | 0.00 | 0.00 | 0.00 | 45 | 1010.2 |
| 20260508134651 | 7 | 234 | 3.2 | 12.9 | 0.00 | 0.00 | 0.00 | 44 | 1010.2 |
| 20260508134552 | 7 | 214 | 1.6 | 12.9 | 0.00 | 0.00 | 0.00 | 44 | 1010.2 |
| 20260508134516 | 7 | 309 | 3.2 | 12.9 | 0.00 | 0.00 | 0.00 | 44 | 1010.3 |
| 20260508134420 | 7 | 255 | 3.2 | 16.1 | 0.00 | 0.00 | 0.00 | 44 | 1010.4 |
| 20260508134341 | 7 | 283 | 3.2 | 16.1 | 0.00 | 0.00 | 0.00 | 44 | 1010.4 |
| 20260508134211 | 7 | 338 | 4.8 | 16.1 | 0.00 | 0.00 | 0.00 | 44 | 1010.4 |
| 20260508134130 | 7 | 327 | 6.4 | 16.1 | 0.00 | 0.00 | 0.00 | 44 | 1010.4 |
| 20260508134001 | 7 | 260 | 4.8 | 16.1 | 0.00 | 0.00 | 0.00 | 42 | 1010.4 |
| 20260508133815 | 7 | 251 | 8.0 | 16.1 | 0.00 | 0.00 | 0.00 | 42 | 1010.4 |
| 20260508133727 | 7 | 324 | 8.0 | 16.1 | 0.00 | 0.00 | 0.00 | 42 | 1010.4 |
| 20260508133640 | 7 | 336 | 8.0 | 16.1 | 0.00 | 0.00 | 0.00 | 42 | 1010.3 |
| 20260508133544 | 7 | 249 | 4.8 | 9.7 | 0.00 | 0.00 | 0.00 | 42 | 1010.3 |
| 20260508133427 | 7 | 190 | 1.6 | 11.3 | 0.00 | 0.00 | 0.00 | 40 | 1010.3 |
| 20260508133350 | 7 | 355 | 0.0 | 12.9 | 0.00 | 0.00 | 0.00 | 41 | 1010.3 |
| 20260508133309 | 7 | 340 | 1.6 | 12.9 | 0.00 | 0.00 | 0.00 | 42 | 1010.3 |
| 20260508133118 | 7 | 309 | 3.2 | 12.9 | 0.00 | 0.00 | 0.00 | 39 | 1010.3 |
| 20260508132959 | 7 | 281 | 3.2 | 12.9 | 0.00 | 0.00 | 0.00 | 39 | 1010.3 |
| 20260508132841 | 7 | 268 | 3.2 | 12.9 | 0.00 | 0.00 | 0.00 | 41 | 1010.3 |
| 20260508132804 | 7 | 274 | 3.2 | 12.9 | 0.00 | 0.00 | 0.00 | 41 | 1010.3 |
| 20260508132718 | 7 | 225 | 4.8 | 12.9 | 0.00 | 0.00 | 0.00 | 41 | 1010.3 |
| 20260508132547 | 7 | 322 | 6.4 | 14.5 | 0.00 | 0.00 | 0.00 | 41 | 1010.3 |
| 20260508132449 | 7 | 315 | 8.0 | 14.5 | 0.00 | 0.00 | 0.00 | 41 | 1010.3 |
| 20260508132323 | 7 | 286 | 3.2 | 14.5 | 0.00 | 0.00 | 0.00 | 39 | 1010.2 |
| 20260508132229 | 7 | 331 | 4.8 | 14.5 | 0.00 | 0.00 | 0.00 | 39 | 1010.3 |
| 20260508132134 | 7 | 295 | 4.8 | 14.5 | 0.00 | 0.00 | 0.00 | 40 | 1010.2 |
| 20260508131945 | 7 | 319 | 4.8 | 14.5 | 0.00 | 0.00 | 0.00 | 39 | 1010.2 |
| 20260508131838 | 7 | 200 | 8.0 | 14.5 | 0.00 | 0.00 | 0.00 | 39 | 1010.2 |
| 20260508131743 | 7 | 240 | 6.4 | 14.5 | 0.00 | 0.00 | 0.00 | 38 | 1010.2 |
| 20260508131646 | 7 | 259 | 4.8 | 9.7 | 0.00 | 0.00 | 0.00 | 38 | 1010.2 |
| 20260508131529 | 7 | 327 | 4.8 | 14.5 | 0.00 | 0.00 | 0.00 | 39 | 1010.2 |
| 20260508131431 | 7 | 313 | 4.8 | 14.5 | 0.00 | 0.00 | 0.00 | 38 | 1010.2 |
| 20260508131354 | 7 | 322 | 4.8 | 14.5 | 0.00 | 0.00 | 0.00 | 38 | 1010.2 |
| 20260508131316 | 7 | 304 | 4.8 | 14.5 | 0.00 | 0.00 | 0.00 | 38 | 1010.2 |
| 20260508131124 | 7 | 307 | 4.8 | 14.5 | 0.00 | 0.00 | 0.00 | 37 | 1010.2 |
| 20260508131037 | 7 | 290 | 6.4 | 14.5 | 0.00 | 0.00 | 0.00 | 37 | 1010.2 |
| 20260508130909 | 7 | 317 | 6.4 | 16.1 | 0.00 | 0.00 | 0.00 | 37 | 1010.2 |
| 20260508130831 | 7 | 326 | 8.0 | 16.1 | 0.00 | 0.00 | 0.00 | 37 | 1010.2 |
| 20260508130633 | 7 | 302 | 4.8 | 16.1 | 0.00 | 0.00 | 0.00 | 34 | 1010.2 |
| 20260508130557 | 7 | 315 | 3.2 | 16.1 | 0.00 | 0.00 | 0.00 | 34 | 1010.2 |
| 20260508130500 | 7 | 282 | 1.6 | 16.1 | 0.00 | 0.00 | 0.00 | 30 | 1010.1 |
| 20260508130344 | 7 | 244 | 4.8 | 16.1 | 0.00 | 0.00 | 0.00 | 32 | 1010.1 |
| 20260508130227 | 7 | 259 | 6.4 | 16.1 | 0.00 | 0.00 | 0.00 | 32 | 1010.2 |
| 20260508130148 | 7 | 329 | 4.8 | 16.1 | 0.00 | 0.00 | 0.00 | 32 | 1010.2 |
| 20260508130019 | 7 | 325 | 1.6 | 9.7 | 0.00 | 0.00 | 0.00 | 31 | 1010.1 |
| 20260508125933 | 7 | 284 | 1.6 | 9.7 | 0.00 | 0.00 | 0.00 | 31 | 1010.1 |
| 20260508125718 | 7 | 284 | 1.6 | 9.7 | 0.00 | 0.00 | 0.00 | 32 | 1010.1 |
| 20260508125639 | 7 | 282 | 1.6 | 9.7 | 0.00 | 0.00 | 0.00 | 32 | 1010.1 |
| 20260508125445 | 7 | 161 | 6.4 | 9.7 | 0.00 | 0.00 | 0.00 | 29 | 1010.1 |
| 20260508125407 | 7 | 178 | 6.4 | 9.7 | 0.00 | 0.00 | 0.00 | 29 | 1010.1 |
| 20260508125311 | 7 | 164 | 6.4 | 9.7 | 0.00 | 0.00 | 0.00 | 30 | 1010.1 |
| 20260508125211 | 7 | 210 | 4.8 | 8.0 | 0.00 | 0.00 | 0.00 | 29 | 1010.1 |